N800KS YBCG-PHOG

Flight info

Callsign N800KS
Flight time 8h 56m
Altitude 33000
Route GOMOL Q47 IDRAS DCT GUMKI Y88 HARVS DCT 2257S16116E 2125S16300E 1554S16850E 1320S17109E/N0464F370 1039S17316E 0824S17459E 0456S17726E 0108S18000W 0013S17923W 0349N17619W 0750N17303W/N0457F390 1208N16923W 1350N16736W 1703N16421W DCT BARKR DCT LNY CAMPS4
Aircraft B737/M-SDE2E3FGHIRWXY/LB1

Departure

Time 2026-04-29 14:30
Airport Gold Coast Airport (YBCG)

Arrival

Time 2026-04-29 23:26
Airport Kahului International Airport (PHOG)
Time Latitude Longitude Altitude Speed Heading
2026-04-29 14:08 -28.16358 153.50978 25 ft 0 kts 330°
2026-04-29 14:22 -28.16371 153.50986 28 ft 4 kts 327°
2026-04-29 14:22 -28.16393 153.51004 25 ft 4 kts 315°
2026-04-29 14:22 -28.16408 153.51028 25 ft 4 kts 281°
2026-04-29 14:23 -28.16407 153.51045 25 ft 1 kts 240°
2026-04-29 14:23 -28.16405 153.51048 25 ft 0 kts 240°
2026-04-29 14:25 -28.16407 153.51045 25 ft 3 kts 240°
2026-04-29 14:25 -28.16433 153.50996 25 ft 11 kts 238°
2026-04-29 14:25 -28.16476 153.50915 27 ft 12 kts 240°
2026-04-29 14:26 -28.16484 153.50828 29 ft 12 kts 302°
2026-04-29 14:26 -28.16393 153.50757 28 ft 21 kts 329°
2026-04-29 14:26 -28.16267 153.50674 28 ft 21 kts 333°
2026-04-29 14:26 -28.16141 153.50596 26 ft 20 kts 330°
2026-04-29 14:27 -28.16019 153.50516 28 ft 20 kts 331°
2026-04-29 14:27 -28.15898 153.50440 24 ft 20 kts 331°
2026-04-29 14:27 -28.15779 153.50364 28 ft 20 kts 331°
2026-04-29 14:28 -28.15614 153.50174 25 ft 18 kts 244°
2026-04-29 14:28 -28.15674 153.50085 30 ft 3 kts 173°
2026-04-29 14:28 -28.15677 153.50087 25 ft 0 kts 154°
2026-04-29 14:29 -28.15714 153.50111 28 ft 31 kts 150°
2026-04-29 14:29 -28.16131 153.50379 26 ft 105 kts 151°
2026-04-29 14:29 -28.16951 153.50901 29 ft 166 kts 151°
2026-04-29 14:29 -28.18052 153.51624 435 ft 187 kts 150°
2026-04-29 14:30 -28.19152 153.52520 1091 ft 208 kts 133°
2026-04-29 14:30 -28.19724 153.54114 1498 ft 235 kts 89°
2026-04-29 14:30 -28.19236 153.55884 2256 ft 242 kts 63°
2026-04-29 14:30 -28.18380 153.57555 2880 ft 250 kts 62°
2026-04-29 14:31 -28.17381 153.59241 3464 ft 263 kts 50°
2026-04-29 14:31 -28.15904 153.60452 4472 ft 262 kts 34°
2026-04-29 14:31 -28.14244 153.61351 5239 ft 271 kts 21°
2026-04-29 14:31 -28.12401 153.61911 5937 ft 278 kts 16°
2026-04-29 14:32 -28.10484 153.62318 6692 ft 282 kts 14°
2026-04-29 14:32 -28.08535 153.62689 7393 ft 286 kts 13°
2026-04-29 14:32 -28.06579 153.63059 8092 ft 289 kts 13°
2026-04-29 14:32 -28.04585 153.63441 8790 ft 293 kts 13°
2026-04-29 14:33 -28.02565 153.63835 9453 ft 297 kts 13°
2026-04-29 14:33 -28.00523 153.64240 10135 ft 299 kts 13°
2026-04-29 14:33 -27.98463 153.64651 10756 ft 304 kts 13°
2026-04-29 14:33 -27.96303 153.65087 10929 ft 325 kts 12°
2026-04-29 14:34 -27.94000 153.65554 11127 ft 345 kts 12°
2026-04-29 14:34 -27.91595 153.66042 11269 ft 364 kts 12°
2026-04-29 14:34 -27.89038 153.66563 11437 ft 382 kts 12°
2026-04-29 14:34 -27.86386 153.67103 11828 ft 391 kts 12°
2026-04-29 14:35 -27.83700 153.67649 12427 ft 393 kts 12°
2026-04-29 14:35 -27.80994 153.68196 13035 ft 395 kts 11°
2026-04-29 14:35 -27.78275 153.68746 13607 ft 398 kts 11°
2026-04-29 14:35 -27.75533 153.69302 14170 ft 401 kts 11°
2026-04-29 14:36 -27.72777 153.69861 14746 ft 404 kts 11°
2026-04-29 14:36 -27.70000 153.70424 15323 ft 407 kts 11°
2026-04-29 14:36 -27.67199 153.70992 15886 ft 410 kts 11°
2026-04-29 14:36 -27.64374 153.71566 16420 ft 414 kts 11°
2026-04-29 14:37 -27.61533 153.72143 16952 ft 416 kts 11°
2026-04-29 14:37 -27.58670 153.72725 17486 ft 419 kts 11°
2026-04-29 14:37 -27.55836 153.73302 18008 ft 421 kts 11°
2026-04-29 14:37 -27.52941 153.73889 18477 ft 425 kts 11°
2026-04-29 14:38 -27.50015 153.74482 18892 ft 429 kts 11°
2026-04-29 14:38 -27.47063 153.75079 19309 ft 433 kts 11°
2026-04-29 14:38 -27.44075 153.75684 19735 ft 436 kts 11°
2026-04-29 14:38 -27.41072 153.76291 20130 ft 440 kts 11°
2026-04-29 14:39 -27.38045 153.76904 20529 ft 444 kts 11°
2026-04-29 14:39 -27.34989 153.77523 20924 ft 447 kts 11°
2026-04-29 14:39 -27.31914 153.78144 21283 ft 451 kts 10°
2026-04-29 14:39 -27.28845 153.78903 21641 ft 454 kts 18°
2026-04-29 14:40 -27.25937 153.80175 21983 ft 456 kts 26°
2026-04-29 14:40 -27.23190 153.81963 22350 ft 457 kts 36°
2026-04-29 14:40 -27.20650 153.84121 22677 ft 459 kts 39°
2026-04-29 14:40 -27.18286 153.86553 22930 ft 463 kts 48°
2026-04-29 14:41 -27.16276 153.89376 23230 ft 464 kts 55°
2026-04-29 14:41 -27.14394 153.92329 23564 ft 466 kts 55°
2026-04-29 14:41 -27.12505 153.95294 23867 ft 468 kts 55°
2026-04-29 14:41 -27.10597 153.98274 24128 ft 471 kts 55°
2026-04-29 14:42 -27.08670 154.01264 24382 ft 474 kts 54°
2026-04-29 14:42 -27.06727 154.04259 24685 ft 475 kts 54°
2026-04-29 14:42 -27.04768 154.07269 24957 ft 478 kts 54°
2026-04-29 14:42 -27.02801 154.10282 25198 ft 480 kts 54°
2026-04-29 14:43 -27.00817 154.13317 25439 ft 483 kts 54°
2026-04-29 14:43 -26.98830 154.16354 25699 ft 484 kts 54°
2026-04-29 14:43 -26.96833 154.19405 25963 ft 486 kts 54°
2026-04-29 14:43 -26.94826 154.22469 26176 ft 489 kts 54°
2026-04-29 14:44 -26.92805 154.25552 26392 ft 491 kts 54°
2026-04-29 14:44 -26.90781 154.28639 26607 ft 493 kts 54°
2026-04-29 14:44 -26.88773 154.31699 26828 ft 495 kts 54°
2026-04-29 14:44 -26.86731 154.34810 27054 ft 496 kts 54°
2026-04-29 14:45 -26.84688 154.37919 27360 ft 496 kts 54°
2026-04-29 14:45 -26.82646 154.41025 27708 ft 494 kts 54°
2026-04-29 14:45 -26.80601 154.44132 28023 ft 494 kts 54°
2026-04-29 14:45 -26.78559 154.47236 28267 ft 495 kts 54°
2026-04-29 14:46 -26.76540 154.50303 28554 ft 495 kts 54°
2026-04-29 14:46 -26.74495 154.53405 28880 ft 494 kts 54°
2026-04-29 14:46 -26.72453 154.56500 29199 ft 494 kts 54°
2026-04-29 14:46 -26.70413 154.59591 29516 ft 493 kts 54°
2026-04-29 14:47 -26.68371 154.62681 29791 ft 494 kts 54°
2026-04-29 14:47 -26.66325 154.65777 30082 ft 494 kts 54°
2026-04-29 14:47 -26.64284 154.68862 30419 ft 493 kts 54°
2026-04-29 14:47 -26.62934 154.70901 30642 ft 492 kts 54°
2026-04-29 14:48 -26.60208 154.75015 31042 ft 492 kts 54°
2026-04-29 14:48 -26.58174 154.78085 31313 ft 492 kts 53°
2026-04-29 14:48 -26.56158 154.81124 31632 ft 491 kts 53°
2026-04-29 14:48 -26.54126 154.84186 31906 ft 490 kts 53°
2026-04-29 14:49 -26.52091 154.87251 32148 ft 491 kts 53°
2026-04-29 14:49 -26.50055 154.90315 32442 ft 489 kts 53°
2026-04-29 14:49 -26.48027 154.93363 32701 ft 489 kts 53°
2026-04-29 14:49 -26.45999 154.96410 32926 ft 489 kts 53°
2026-04-29 14:50 -26.43967 154.99462 33127 ft 489 kts 53°
2026-04-29 14:50 -26.41967 155.02464 33302 ft 489 kts 52°
2026-04-29 14:50 -26.39928 155.05523 33272 ft 489 kts 52°
2026-04-29 14:51 -26.35870 155.11601 33276 ft 486 kts 52°
2026-04-29 14:51 -26.31829 155.17648 33290 ft 485 kts 52°
2026-04-29 14:52 -26.27824 155.23631 33286 ft 483 kts 51°
2026-04-29 14:52 -26.23792 155.29646 33288 ft 483 kts 51°
2026-04-29 14:53 -26.19778 155.35629 33287 ft 482 kts 51°
2026-04-29 14:53 -26.15761 155.41607 33283 ft 482 kts 51°
2026-04-29 14:54 -26.11771 155.47537 33278 ft 481 kts 50°
2026-04-29 14:54 -26.07751 155.53505 33274 ft 481 kts 50°
2026-04-29 14:55 -26.03737 155.59457 33276 ft 480 kts 50°
2026-04-29 14:55 -25.99727 155.65395 33275 ft 480 kts 50°
2026-04-29 14:56 -25.95714 155.71327 33274 ft 480 kts 50°
2026-04-29 14:56 -25.91727 155.77216 33277 ft 479 kts 50°
2026-04-29 14:57 -25.87713 155.83137 33275 ft 479 kts 49°
2026-04-29 14:57 -25.83701 155.89048 33276 ft 479 kts 49°
2026-04-29 14:58 -25.80364 155.93960 33277 ft 479 kts 49°
2026-04-29 14:58 -25.76352 155.99863 33276 ft 479 kts 49°
2026-04-29 14:59 -25.71696 156.06735 33277 ft 480 kts 51°
2026-04-29 14:59 -25.68802 156.12069 33283 ft 482 kts 57°
2026-04-29 15:00 -25.65596 156.18568 33277 ft 483 kts 58°
2026-04-29 15:00 -25.62368 156.25114 33279 ft 483 kts 57°
2026-04-29 15:01 -25.59100 156.31631 33274 ft 483 kts 57°
2026-04-29 15:01 -25.55814 156.38123 33277 ft 483 kts 57°
2026-04-29 15:02 -25.52539 156.44573 33277 ft 484 kts 57°
2026-04-29 15:02 -25.49239 156.51066 33275 ft 484 kts 57°
2026-04-29 15:03 -25.45934 156.57562 33276 ft 484 kts 57°
2026-04-29 15:03 -25.42623 156.64062 33268 ft 485 kts 56°
2026-04-29 15:04 -25.39304 156.70570 33271 ft 485 kts 56°
2026-04-29 15:04 -25.35985 156.77067 33263 ft 485 kts 56°
2026-04-29 15:05 -25.32685 156.83519 33268 ft 485 kts 56°
2026-04-29 15:05 -25.29360 156.90009 33265 ft 485 kts 56°
2026-04-29 15:06 -25.26034 156.96493 33263 ft 485 kts 56°
2026-04-29 15:06 -25.22707 157.02970 33264 ft 484 kts 56°
2026-04-29 15:07 -25.19379 157.09440 33266 ft 484 kts 56°
2026-04-29 15:07 -25.16048 157.15907 33269 ft 484 kts 56°
2026-04-29 15:08 -25.12742 157.22316 33268 ft 483 kts 55°
2026-04-29 15:08 -25.09415 157.28758 33265 ft 483 kts 55°
2026-04-29 15:09 -25.06083 157.35199 33270 ft 482 kts 55°
2026-04-29 15:09 -25.02758 157.41618 33268 ft 482 kts 55°
2026-04-29 15:10 -24.99445 157.48005 33247 ft 484 kts 56°
2026-04-29 15:10 -24.96063 157.54507 33275 ft 492 kts 56°
2026-04-29 15:11 -24.92631 157.61104 33276 ft 499 kts 56°
2026-04-29 15:11 -24.89175 157.67743 33262 ft 500 kts 56°
2026-04-29 15:12 -24.85703 157.74403 33246 ft 501 kts 56°
2026-04-29 15:12 -24.82244 157.81029 33252 ft 501 kts 56°
2026-04-29 15:13 -24.78763 157.87686 33246 ft 501 kts 56°
2026-04-29 15:13 -24.75279 157.94337 33261 ft 501 kts 55°
2026-04-29 15:14 -24.71795 158.00978 33264 ft 501 kts 55°
2026-04-29 15:14 -24.68316 158.07601 33260 ft 500 kts 54°
2026-04-29 15:15 -24.64862 158.14168 33254 ft 498 kts 54°
2026-04-29 15:15 -24.61387 158.20766 33254 ft 497 kts 54°
2026-04-29 15:16 -24.57922 158.27338 33260 ft 497 kts 54°
2026-04-29 15:16 -24.54456 158.33899 33258 ft 496 kts 54°
2026-04-29 15:17 -24.50989 158.40454 33248 ft 496 kts 54°
2026-04-29 15:17 -24.47517 158.47008 33249 ft 497 kts 54°
2026-04-29 15:18 -24.44065 158.53517 33245 ft 497 kts 54°
2026-04-29 15:18 -24.40581 158.60077 33250 ft 497 kts 54°
2026-04-29 15:19 -24.37090 158.66643 33246 ft 498 kts 54°
2026-04-29 15:19 -24.33600 158.73198 33252 ft 498 kts 54°
2026-04-29 15:20 -24.30108 158.79748 33250 ft 497 kts 54°
2026-04-29 15:20 -24.26613 158.86292 33249 ft 497 kts 54°
2026-04-29 15:21 -24.23143 158.92783 33243 ft 496 kts 54°
2026-04-29 15:21 -24.19653 158.99302 33238 ft 494 kts 54°
2026-04-29 15:22 -24.16171 159.05797 33237 ft 493 kts 53°
2026-04-29 15:22 -24.12700 159.12262 33229 ft 492 kts 53°
2026-04-29 15:23 -24.09247 159.18686 33209 ft 491 kts 53°
2026-04-29 15:23 -24.05876 159.24949 33201 ft 491 kts 53°
2026-04-29 15:24 -24.02410 159.31379 33207 ft 490 kts 53°
2026-04-29 15:24 -23.98950 159.37792 33202 ft 489 kts 53°
2026-04-29 15:25 -23.95503 159.44170 33200 ft 490 kts 53°
2026-04-29 15:25 -23.92028 159.50593 33203 ft 491 kts 53°
2026-04-29 15:26 -23.88541 159.57029 33194 ft 492 kts 53°
2026-04-29 15:26 -23.85065 159.63436 33196 ft 493 kts 53°
2026-04-29 15:27 -23.81565 159.69880 33192 ft 493 kts 53°
2026-04-29 15:27 -23.78061 159.76323 33193 ft 493 kts 53°
2026-04-29 15:28 -23.74558 159.82756 33188 ft 493 kts 53°
2026-04-29 15:28 -23.71057 159.89177 33180 ft 492 kts 53°
2026-04-29 15:29 -23.67554 159.95594 33188 ft 492 kts 53°
2026-04-29 15:30 -23.60551 160.08399 33172 ft 491 kts 52°
2026-04-29 15:30 -23.57044 160.14795 33163 ft 491 kts 52°
2026-04-29 15:31 -23.53565 160.21134 33164 ft 490 kts 52°
2026-04-29 15:31 -23.50059 160.27513 33162 ft 490 kts 52°
2026-04-29 15:32 -23.46553 160.33886 33164 ft 490 kts 52°
2026-04-29 15:32 -23.43044 160.40255 33164 ft 490 kts 52°
2026-04-29 15:33 -23.39560 160.46572 33169 ft 490 kts 52°
2026-04-29 15:33 -23.36050 160.52929 33164 ft 490 kts 52°
2026-04-29 15:34 -23.32533 160.59288 33153 ft 490 kts 52°
2026-04-29 15:34 -23.29014 160.65645 33157 ft 490 kts 51°
2026-04-29 15:35 -23.25489 160.72005 33153 ft 491 kts 51°
2026-04-29 15:35 -23.21957 160.78367 33158 ft 491 kts 51°
2026-04-29 15:36 -23.18446 160.84686 33155 ft 491 kts 51°
2026-04-29 15:36 -23.14910 160.91040 33149 ft 492 kts 51°
2026-04-29 15:37 -23.11364 160.97406 33146 ft 492 kts 51°
2026-04-29 15:37 -23.07818 161.03764 33147 ft 491 kts 51°
2026-04-29 15:38 -23.04273 161.10115 33163 ft 491 kts 51°
2026-04-29 15:38 -23.00733 161.16451 33151 ft 491 kts 51°
2026-04-29 15:39 -22.97190 161.22783 33157 ft 491 kts 51°
2026-04-29 15:39 -22.93367 161.28773 33140 ft 477 kts 39°
2026-04-29 15:40 -22.88797 161.33985 33145 ft 475 kts 37°
2026-04-29 15:40 -22.84191 161.39144 33147 ft 475 kts 38°
2026-04-29 15:41 -22.79649 161.44294 33148 ft 476 kts 38°
2026-04-29 15:41 -22.75084 161.49512 33148 ft 476 kts 38°
2026-04-29 15:42 -22.70529 161.54729 33147 ft 477 kts 38°
2026-04-29 15:42 -22.65967 161.59946 33140 ft 477 kts 38°
2026-04-29 15:43 -22.61397 161.65166 33138 ft 477 kts 38°
2026-04-29 15:43 -22.56853 161.70349 33140 ft 477 kts 38°
2026-04-29 15:44 -22.52273 161.75567 33140 ft 478 kts 38°
2026-04-29 15:44 -22.47688 161.80786 33139 ft 478 kts 38°
2026-04-29 15:45 -22.43097 161.86007 33138 ft 479 kts 38°
2026-04-29 15:45 -22.38531 161.91193 33133 ft 479 kts 38°
2026-04-29 15:46 -22.33931 161.96411 33124 ft 480 kts 38°
2026-04-29 15:46 -22.29316 162.01644 33119 ft 480 kts 38°
2026-04-29 15:47 -22.24703 162.06869 33120 ft 480 kts 38°
2026-04-29 15:47 -22.20126 162.12048 33121 ft 480 kts 38°
2026-04-29 15:48 -22.15509 162.17265 33119 ft 480 kts 38°
2026-04-29 15:48 -22.10896 162.22472 33117 ft 480 kts 38°
2026-04-29 15:49 -22.07056 162.26804 33108 ft 480 kts 38°
2026-04-29 15:49 -22.02435 162.32011 33103 ft 480 kts 38°
2026-04-29 15:50 -21.97818 162.37209 33092 ft 480 kts 38°
2026-04-29 15:50 -21.93200 162.42404 33086 ft 480 kts 38°
2026-04-29 15:51 -21.88611 162.47560 33095 ft 480 kts 38°
2026-04-29 15:51 -21.83991 162.52745 33096 ft 480 kts 38°
2026-04-29 15:52 -21.80946 162.56166 33093 ft 480 kts 38°
2026-04-29 15:52 -21.76319 162.61359 33138 ft 482 kts 38°
2026-04-29 15:52 -21.73990 162.63964 33387 ft 481 kts 38°
2026-04-29 15:53 -21.71677 162.66554 33706 ft 479 kts 38°
2026-04-29 15:53 -21.69365 162.69139 33931 ft 479 kts 38°
2026-04-29 15:53 -21.67053 162.71724 34119 ft 479 kts 38°
2026-04-29 15:53 -21.64743 162.74307 34331 ft 479 kts 38°
2026-04-29 15:54 -21.62551 162.76758 34552 ft 478 kts 37°
2026-04-29 15:54 -21.60227 162.79357 34832 ft 476 kts 38°
2026-04-29 15:54 -21.57931 162.81920 35052 ft 475 kts 37°
2026-04-29 15:55 -21.53318 162.87059 35080 ft 479 kts 37°
2026-04-29 15:55 -21.48695 162.92210 35071 ft 478 kts 37°
2026-04-29 15:56 -21.44087 162.97344 35078 ft 477 kts 37°
2026-04-29 15:56 -21.39478 163.02469 35073 ft 476 kts 37°
2026-04-29 15:57 -21.34909 163.07542 35074 ft 475 kts 37°
2026-04-29 15:57 -21.30307 163.12649 35077 ft 475 kts 37°
2026-04-29 15:58 -21.25713 163.17744 35078 ft 475 kts 37°
2026-04-29 15:58 -21.21114 163.22841 35068 ft 476 kts 37°
2026-04-29 15:59 -21.16503 163.27950 35081 ft 477 kts 37°
2026-04-29 15:59 -21.11881 163.33066 35079 ft 478 kts 37°
2026-04-29 16:00 -21.07275 163.38159 35071 ft 479 kts 37°
2026-04-29 16:00 -21.02637 163.43285 35068 ft 480 kts 37°
2026-04-29 16:01 -20.97987 163.48417 35074 ft 480 kts 37°
2026-04-29 16:01 -20.93329 163.53551 35071 ft 481 kts 37°
2026-04-29 16:02 -20.88662 163.58691 35074 ft 481 kts 37°
2026-04-29 16:02 -20.83989 163.63833 35070 ft 482 kts 37°
2026-04-29 16:03 -20.79315 163.68972 35074 ft 482 kts 37°
2026-04-29 16:03 -20.74640 163.74107 35072 ft 482 kts 37°
2026-04-29 16:04 -20.69954 163.79251 35073 ft 483 kts 37°
2026-04-29 16:04 -20.65293 163.84359 35071 ft 483 kts 37°
2026-04-29 16:05 -20.60588 163.89512 35077 ft 483 kts 37°
2026-04-29 16:05 -20.55885 163.94658 35073 ft 484 kts 37°
2026-04-29 16:06 -20.51185 163.99797 35073 ft 484 kts 37°
2026-04-29 16:06 -20.46499 164.04915 35074 ft 484 kts 37°
2026-04-29 16:07 -20.41781 164.10061 35074 ft 485 kts 37°
2026-04-29 16:07 -20.37089 164.15174 35069 ft 485 kts 37°
2026-04-29 16:08 -20.32363 164.20322 35066 ft 485 kts 37°
2026-04-29 16:08 -20.27633 164.25468 35057 ft 485 kts 37°
2026-04-29 16:09 -20.22903 164.30611 35063 ft 485 kts 37°
2026-04-29 16:09 -20.18173 164.35749 35062 ft 485 kts 37°
2026-04-29 16:10 -20.13469 164.40851 35049 ft 486 kts 37°
2026-04-29 16:10 -20.08733 164.45988 35046 ft 485 kts 37°
2026-04-29 16:11 -20.04004 164.51110 35044 ft 485 kts 37°
2026-04-29 16:11 -19.99275 164.56228 35044 ft 485 kts 37°
2026-04-29 16:12 -19.94547 164.61340 35044 ft 484 kts 37°
2026-04-29 16:12 -19.89812 164.66453 35048 ft 484 kts 37°
2026-04-29 16:13 -19.85116 164.71519 35043 ft 484 kts 37°
2026-04-29 16:13 -19.80383 164.76624 35047 ft 484 kts 37°
2026-04-29 16:14 -19.75651 164.81721 35044 ft 484 kts 37°
2026-04-29 16:14 -19.70921 164.86813 35048 ft 484 kts 37°
2026-04-29 16:15 -19.66189 164.91903 35047 ft 484 kts 37°
2026-04-29 16:15 -19.61478 164.96963 35046 ft 484 kts 37°
2026-04-29 16:16 -19.56729 165.02060 35047 ft 484 kts 37°
2026-04-29 16:16 -19.51991 165.07144 35048 ft 484 kts 37°
2026-04-29 16:17 -19.47246 165.12227 35046 ft 484 kts 37°
2026-04-29 16:17 -19.42505 165.17301 35048 ft 484 kts 38°
2026-04-29 16:18 -19.37788 165.22346 35044 ft 484 kts 38°
2026-04-29 16:18 -19.33042 165.27419 35046 ft 484 kts 38°
2026-04-29 16:19 -19.28298 165.32487 35042 ft 484 kts 38°
2026-04-29 16:19 -19.23552 165.37549 35034 ft 484 kts 38°
2026-04-29 16:20 -19.18839 165.42571 35037 ft 483 kts 38°
2026-04-29 16:20 -19.14096 165.47622 35038 ft 483 kts 38°
2026-04-29 16:21 -19.09357 165.52664 35036 ft 482 kts 38°
2026-04-29 16:21 -19.04620 165.57699 35036 ft 482 kts 38°
2026-04-29 16:22 -18.99917 165.62693 35038 ft 482 kts 38°
2026-04-29 16:22 -18.95183 165.67718 35036 ft 482 kts 38°
2026-04-29 16:23 -18.90448 165.72738 35037 ft 482 kts 38°
2026-04-29 16:23 -18.85715 165.77751 35036 ft 481 kts 38°
2026-04-29 16:24 -18.80986 165.82757 35039 ft 482 kts 38°
2026-04-29 16:24 -18.76276 165.87739 35036 ft 482 kts 38°
2026-04-29 16:25 -18.71540 165.92745 35039 ft 482 kts 38°
2026-04-29 16:25 -18.66797 165.97753 35037 ft 481 kts 38°
2026-04-29 16:26 -18.62059 166.02754 35045 ft 481 kts 39°
2026-04-29 16:26 -18.57323 166.07748 35048 ft 481 kts 39°
2026-04-29 16:27 -18.52614 166.12708 35047 ft 481 kts 39°
2026-04-29 16:27 -18.47874 166.17695 35045 ft 481 kts 39°
2026-04-29 16:28 -18.43134 166.22680 35043 ft 481 kts 39°
2026-04-29 16:28 -18.38388 166.27666 35036 ft 481 kts 39°
2026-04-29 16:29 -18.33644 166.32646 35036 ft 481 kts 39°
2026-04-29 16:29 -18.28931 166.37589 35037 ft 481 kts 39°
2026-04-29 16:30 -18.24183 166.42564 35036 ft 481 kts 39°
2026-04-29 16:30 -18.19433 166.47540 35036 ft 481 kts 39°
2026-04-29 16:31 -18.14821 166.52366 35038 ft 481 kts 39°
2026-04-29 16:31 -18.10074 166.57327 35034 ft 481 kts 39°
2026-04-29 16:32 -18.05323 166.62290 35039 ft 481 kts 39°
2026-04-29 16:32 -18.00573 166.67249 35035 ft 481 kts 39°
2026-04-29 16:33 -17.93476 166.74650 35038 ft 481 kts 39°
2026-04-29 16:33 -17.88718 166.79607 35036 ft 481 kts 40°
2026-04-29 16:34 -17.83966 166.84556 35037 ft 481 kts 40°
2026-04-29 16:34 -17.79203 166.89511 35034 ft 482 kts 40°
2026-04-29 16:35 -17.74467 166.94433 35027 ft 482 kts 40°
2026-04-29 16:35 -17.69693 166.99389 35031 ft 482 kts 40°
2026-04-29 16:36 -17.65722 167.03509 35024 ft 482 kts 40°
2026-04-29 16:36 -17.60947 167.08462 35012 ft 483 kts 40°
2026-04-29 16:37 -17.56167 167.13415 35005 ft 483 kts 40°
2026-04-29 16:37 -17.52189 167.17535 35009 ft 483 kts 40°
2026-04-29 16:38 -17.46621 167.23294 35007 ft 483 kts 40°
2026-04-29 16:38 -17.41826 167.28249 34997 ft 483 kts 40°
2026-04-29 16:39 -17.37040 167.33193 35003 ft 483 kts 40°
2026-04-29 16:39 -17.32251 167.38138 35003 ft 483 kts 40°
2026-04-29 16:40 -17.27464 167.43074 34999 ft 483 kts 40°
2026-04-29 16:40 -17.22666 167.48019 35001 ft 483 kts 40°
2026-04-29 16:41 -17.17899 167.52927 35002 ft 483 kts 40°
2026-04-29 16:41 -17.13100 167.57865 35000 ft 483 kts 40°
2026-04-29 16:42 -17.08305 167.62796 34999 ft 483 kts 40°
2026-04-29 16:42 -17.03510 167.67721 34994 ft 483 kts 40°
2026-04-29 16:43 -16.98709 167.72648 34986 ft 483 kts 40°
2026-04-29 16:43 -16.93908 167.77574 34987 ft 483 kts 40°
2026-04-29 16:44 -16.89144 167.82459 35001 ft 482 kts 40°
2026-04-29 16:44 -16.84357 167.87363 34984 ft 482 kts 40°
2026-04-29 16:45 -16.79568 167.92265 34991 ft 481 kts 40°
2026-04-29 16:45 -16.74782 167.97159 34981 ft 481 kts 40°
2026-04-29 16:46 -16.69995 168.02053 34992 ft 481 kts 40°
2026-04-29 16:46 -16.65249 168.06899 34980 ft 481 kts 40°
2026-04-29 16:47 -16.60464 168.11782 34982 ft 480 kts 40°
2026-04-29 16:47 -16.55682 168.16659 34979 ft 480 kts 40°
2026-04-29 16:48 -16.50902 168.21530 34971 ft 480 kts 40°
2026-04-29 16:48 -16.46121 168.26398 34971 ft 480 kts 40°
2026-04-29 16:49 -16.41368 168.31235 34966 ft 480 kts 40°
2026-04-29 16:49 -16.36584 168.36098 34971 ft 480 kts 40°
2026-04-29 16:50 -16.31797 168.40962 34962 ft 481 kts 40°
2026-04-29 16:50 -16.27005 168.45828 34965 ft 481 kts 40°
2026-04-29 16:51 -16.22214 168.50689 34961 ft 481 kts 40°
2026-04-29 16:51 -16.17420 168.55550 34955 ft 481 kts 40°
2026-04-29 16:52 -16.12623 168.60411 34953 ft 481 kts 40°
2026-04-29 16:52 -16.07848 168.65246 34956 ft 481 kts 40°
2026-04-29 16:53 -16.03051 168.70101 34951 ft 481 kts 40°
2026-04-29 16:53 -15.98254 168.74952 34946 ft 481 kts 40°
2026-04-29 16:54 -15.93460 168.79800 34942 ft 481 kts 40°
2026-04-29 16:54 -15.88654 168.84631 34944 ft 480 kts 39°
2026-04-29 16:55 -15.83714 168.89208 34944 ft 478 kts 37°
2026-04-29 16:55 -15.78684 168.93722 34941 ft 477 kts 37°
2026-04-29 16:56 -15.73671 168.98256 34945 ft 477 kts 38°
2026-04-29 16:56 -15.68688 169.02805 34943 ft 476 kts 38°
2026-04-29 16:57 -15.63718 169.07353 34943 ft 476 kts 38°
2026-04-29 16:57 -15.58750 169.11898 34943 ft 476 kts 38°
2026-04-29 16:58 -15.53811 169.16412 34943 ft 476 kts 38°
2026-04-29 16:58 -15.48827 169.20961 34942 ft 476 kts 38°
2026-04-29 16:59 -15.43847 169.25503 34932 ft 476 kts 38°
2026-04-29 16:59 -15.38870 169.30041 34924 ft 477 kts 38°
2026-04-29 17:00 -15.33883 169.34584 34926 ft 477 kts 38°
2026-04-29 17:00 -15.28928 169.39096 34926 ft 477 kts 38°
2026-04-29 17:01 -15.23937 169.43637 34917 ft 477 kts 38°
2026-04-29 17:01 -15.18939 169.48182 34919 ft 477 kts 38°
2026-04-29 17:02 -15.13943 169.52721 34933 ft 477 kts 38°
2026-04-29 17:02 -15.08946 169.57260 34923 ft 478 kts 38°
2026-04-29 17:03 -15.03981 169.61765 34925 ft 477 kts 38°
2026-04-29 17:03 -14.98991 169.66291 34926 ft 477 kts 38°
2026-04-29 17:04 -14.93998 169.70816 34926 ft 477 kts 38°
2026-04-29 17:04 -14.88998 169.75343 34924 ft 477 kts 38°
2026-04-29 17:05 -14.84027 169.79844 34926 ft 476 kts 38°
2026-04-29 17:05 -14.79045 169.84351 34924 ft 476 kts 38°
2026-04-29 17:06 -14.74064 169.88854 34925 ft 475 kts 38°
2026-04-29 17:06 -14.69085 169.93354 34928 ft 475 kts 38°
2026-04-29 17:07 -14.64949 169.97090 34925 ft 475 kts 38°
2026-04-29 17:07 -14.59164 170.02311 34925 ft 475 kts 38°
2026-04-29 17:08 -14.54192 170.06793 34926 ft 475 kts 38°
2026-04-29 17:08 -14.49212 170.11281 34925 ft 475 kts 38°
2026-04-29 17:09 -14.44231 170.15768 34924 ft 475 kts 38°
2026-04-29 17:09 -14.39243 170.20257 34926 ft 475 kts 38°
2026-04-29 17:10 -14.34293 170.24710 34925 ft 475 kts 38°
2026-04-29 17:10 -14.29301 170.29197 34925 ft 476 kts 38°
2026-04-29 17:11 -14.24306 170.33686 34925 ft 476 kts 38°
2026-04-29 17:11 -14.19342 170.38143 34926 ft 475 kts 38°
2026-04-29 17:12 -14.14356 170.42617 34928 ft 475 kts 38°
2026-04-29 17:12 -14.10204 170.46341 34923 ft 475 kts 38°
2026-04-29 17:13 -14.04366 170.51575 34929 ft 475 kts 38°
2026-04-29 17:13 -13.99395 170.56028 34927 ft 475 kts 38°
2026-04-29 17:14 -13.94407 170.60492 34926 ft 475 kts 38°
2026-04-29 17:14 -13.89408 170.64965 34926 ft 475 kts 38°
2026-04-29 17:15 -13.84406 170.69438 34925 ft 475 kts 38°
2026-04-29 17:15 -13.79437 170.73880 34921 ft 476 kts 38°
2026-04-29 17:16 -13.74437 170.78345 34914 ft 475 kts 38°
2026-04-29 17:16 -13.69439 170.82807 34917 ft 475 kts 39°
2026-04-29 17:17 -13.64444 170.87263 34941 ft 475 kts 39°
2026-04-29 17:17 -13.59472 170.91695 34941 ft 475 kts 38°
2026-04-29 17:18 -13.54473 170.96149 34949 ft 475 kts 39°
2026-04-29 17:18 -13.49477 171.00598 34944 ft 475 kts 39°
2026-04-29 17:19 -13.44479 171.05049 34943 ft 475 kts 39°
2026-04-29 17:19 -13.39475 171.09503 34944 ft 475 kts 39°
2026-04-29 17:20 -13.34472 171.13953 34944 ft 476 kts 39°
2026-04-29 17:20 -13.29385 171.18293 34947 ft 475 kts 36°
2026-04-29 17:21 -13.24135 171.22420 34945 ft 475 kts 35°
2026-04-29 17:21 -13.18906 171.26513 34943 ft 475 kts 36°
2026-04-29 17:22 -13.13668 171.30662 34945 ft 475 kts 36°
2026-04-29 17:22 -13.09329 171.34120 34947 ft 475 kts 36°
2026-04-29 17:23 -13.04113 171.38282 34947 ft 475 kts 36°
2026-04-29 17:23 -12.98892 171.42446 34943 ft 475 kts 36°
2026-04-29 17:24 -12.93671 171.46606 34942 ft 475 kts 36°
2026-04-29 17:24 -12.88448 171.50764 34947 ft 475 kts 36°
2026-04-29 17:25 -12.83259 171.54893 34944 ft 475 kts 36°
2026-04-29 17:25 -12.78036 171.59046 34944 ft 475 kts 36°
2026-04-29 17:26 -12.72817 171.63194 34944 ft 474 kts 36°
2026-04-29 17:26 -12.67599 171.67340 34941 ft 474 kts 36°
2026-04-29 17:27 -12.62385 171.71479 34933 ft 474 kts 36°
2026-04-29 17:27 -12.57202 171.75593 34938 ft 474 kts 36°
2026-04-29 17:28 -12.51993 171.79723 34935 ft 473 kts 36°
2026-04-29 17:28 -12.46780 171.83855 34934 ft 473 kts 36°
2026-04-29 17:29 -12.41575 171.87980 34938 ft 473 kts 36°
2026-04-29 17:29 -12.36362 171.92108 34932 ft 473 kts 36°
2026-04-29 17:30 -12.31180 171.96209 34935 ft 473 kts 36°
2026-04-29 17:30 -12.25962 172.00337 34933 ft 473 kts 36°
2026-04-29 17:31 -12.20749 172.04459 34934 ft 473 kts 36°
2026-04-29 17:31 -12.15539 172.08577 34935 ft 473 kts 36°
2026-04-29 17:32 -12.10364 172.12665 34933 ft 473 kts 37°
2026-04-29 17:32 -12.05140 172.16789 34937 ft 473 kts 36°
2026-04-29 17:33 -11.99965 172.20874 34934 ft 473 kts 36°
2026-04-29 17:33 -11.94759 172.24980 34934 ft 473 kts 36°
2026-04-29 17:34 -11.89537 172.29097 34935 ft 473 kts 36°
2026-04-29 17:34 -11.84332 172.33197 34934 ft 473 kts 36°
2026-04-29 17:35 -11.76547 172.39327 34939 ft 473 kts 36°
2026-04-29 17:36 -11.71340 172.43425 34935 ft 473 kts 36°
2026-04-29 17:36 -11.66125 172.47526 34935 ft 472 kts 36°
2026-04-29 17:37 -11.60942 172.51602 34934 ft 472 kts 36°
2026-04-29 17:37 -11.55739 172.55691 34936 ft 472 kts 36°
2026-04-29 17:38 -11.50525 172.59786 34933 ft 472 kts 37°
2026-04-29 17:38 -11.45316 172.63874 34934 ft 472 kts 37°
2026-04-29 17:39 -11.40118 172.67955 34939 ft 471 kts 37°
2026-04-29 17:39 -11.34957 172.72002 34934 ft 471 kts 36°
2026-04-29 17:40 -11.29768 172.76070 34933 ft 470 kts 37°
2026-04-29 17:40 -11.24580 172.80134 34934 ft 470 kts 37°
2026-04-29 17:41 -11.19397 172.84194 34934 ft 470 kts 37°
2026-04-29 17:41 -11.14212 172.88253 34928 ft 470 kts 37°
2026-04-29 17:42 -11.09022 172.92315 34923 ft 470 kts 37°
2026-04-29 17:42 -11.03873 172.96342 34924 ft 470 kts 37°
2026-04-29 17:43 -10.98691 173.00392 34929 ft 469 kts 37°
2026-04-29 17:43 -10.93508 173.04443 34929 ft 469 kts 37°
2026-04-29 17:44 -10.88328 173.08490 34923 ft 469 kts 37°
2026-04-29 17:44 -10.83188 173.12504 34927 ft 469 kts 37°
2026-04-29 17:45 -10.78012 173.16545 34924 ft 468 kts 37°
2026-04-29 17:45 -10.72837 173.20582 34929 ft 468 kts 37°
2026-04-29 17:46 -10.67671 173.24614 34927 ft 468 kts 37°
2026-04-29 17:46 -10.62530 173.28609 34925 ft 468 kts 36°
2026-04-29 17:47 -10.57338 173.32594 34925 ft 467 kts 36°
2026-04-29 17:47 -10.52142 173.36576 34928 ft 467 kts 36°
2026-04-29 17:48 -10.46957 173.40555 34928 ft 466 kts 36°
2026-04-29 17:48 -10.41820 173.44499 34925 ft 466 kts 36°
2026-04-29 17:49 -10.36650 173.48468 34922 ft 465 kts 36°
2026-04-29 17:49 -10.31486 173.52432 34916 ft 465 kts 36°
2026-04-29 17:50 -10.26322 173.56393 34917 ft 465 kts 36°
2026-04-29 17:50 -10.21163 173.60350 34919 ft 464 kts 36°
2026-04-29 17:51 -10.16005 173.64303 34915 ft 464 kts 36°
2026-04-29 17:51 -10.10855 173.68248 34917 ft 464 kts 36°
2026-04-29 17:52 -10.05738 173.72166 34916 ft 463 kts 36°
2026-04-29 17:52 -10.00594 173.76104 34919 ft 463 kts 36°
2026-04-29 17:53 -9.95450 173.80041 34914 ft 463 kts 37°
2026-04-29 17:53 -9.90311 173.83972 34917 ft 462 kts 36°
2026-04-29 17:54 -9.85200 173.87879 34917 ft 462 kts 36°
2026-04-29 17:54 -9.80060 173.91806 34916 ft 462 kts 36°
2026-04-29 17:55 -9.74927 173.95729 34917 ft 462 kts 36°
2026-04-29 17:55 -9.69787 173.99654 34916 ft 462 kts 36°
2026-04-29 17:56 -9.64648 174.03577 34918 ft 462 kts 36°
2026-04-29 17:56 -9.59506 174.07500 34916 ft 462 kts 37°
2026-04-29 17:57 -9.54369 174.11419 34917 ft 462 kts 37°
2026-04-29 17:57 -9.49234 174.15335 34916 ft 462 kts 37°
2026-04-29 17:58 -9.44087 174.19258 34913 ft 462 kts 37°
2026-04-29 17:58 -9.38972 174.23155 34909 ft 463 kts 37°
2026-04-29 17:59 -9.33821 174.27080 34907 ft 463 kts 37°
2026-04-29 17:59 -9.28659 174.31009 34908 ft 463 kts 37°
2026-04-29 18:00 -9.23505 174.34931 34907 ft 464 kts 37°
2026-04-29 18:00 -9.18373 174.38835 34909 ft 463 kts 37°
2026-04-29 18:01 -9.14292 174.41939 34905 ft 463 kts 37°
2026-04-29 18:01 -9.09136 174.45859 34905 ft 463 kts 37°
2026-04-29 18:02 -9.03983 174.49776 34907 ft 463 kts 37°
2026-04-29 18:02 -8.98828 174.53692 34910 ft 463 kts 37°
2026-04-29 18:03 -8.93677 174.57604 34905 ft 463 kts 37°
2026-04-29 18:03 -8.88555 174.61492 34908 ft 462 kts 37°
2026-04-29 18:04 -8.83401 174.65403 34907 ft 462 kts 37°
2026-04-29 18:04 -8.78252 174.69310 34908 ft 462 kts 37°
2026-04-29 18:05 -8.73106 174.73213 34907 ft 462 kts 37°
2026-04-29 18:05 -8.67989 174.77093 34908 ft 462 kts 37°
2026-04-29 18:06 -8.62811 174.81018 34907 ft 462 kts 37°
2026-04-29 18:06 -8.57693 174.84896 34907 ft 462 kts 37°
2026-04-29 18:07 -8.52538 174.88800 34907 ft 463 kts 37°
2026-04-29 18:07 -8.47384 174.92704 34894 ft 463 kts 37°
2026-04-29 18:08 -8.42227 174.96610 34887 ft 463 kts 37°
2026-04-29 18:08 -8.37035 175.00482 34890 ft 463 kts 36°
2026-04-29 18:09 -8.31790 175.04204 34890 ft 464 kts 35°
2026-04-29 18:09 -8.26491 175.07937 34889 ft 464 kts 35°
2026-04-29 18:10 -8.21200 175.11688 34883 ft 465 kts 36°
2026-04-29 18:10 -8.15906 175.15456 34892 ft 466 kts 36°
2026-04-29 18:11 -8.10628 175.19221 34891 ft 467 kts 36°
2026-04-29 18:11 -8.05327 175.23050 34891 ft 468 kts 36°
2026-04-29 18:12 -7.99976 175.26832 34889 ft 469 kts 36°
2026-04-29 18:12 -7.94652 175.30597 34889 ft 470 kts 36°
2026-04-29 18:13 -7.89296 175.34399 34889 ft 470 kts 36°
2026-04-29 18:13 -7.84841 175.37567 34889 ft 471 kts 36°
2026-04-29 18:14 -7.79490 175.41372 34888 ft 471 kts 36°
2026-04-29 18:14 -7.74127 175.45184 34889 ft 470 kts 36°
2026-04-29 18:15 -7.68811 175.48961 34888 ft 470 kts 36°
2026-04-29 18:15 -7.63469 175.52754 34889 ft 470 kts 36°
2026-04-29 18:16 -7.58121 175.56551 34888 ft 470 kts 36°
2026-04-29 18:16 -7.52776 175.60346 34889 ft 469 kts 36°
2026-04-29 18:17 -7.47427 175.64141 34889 ft 469 kts 36°
2026-04-29 18:17 -7.42119 175.67907 34889 ft 469 kts 36°
2026-04-29 18:18 -7.36773 175.71698 34888 ft 469 kts 36°
2026-04-29 18:18 -7.31438 175.75479 34889 ft 468 kts 36°
2026-04-29 18:19 -7.26143 175.79232 34889 ft 468 kts 36°
2026-04-29 18:19 -7.20814 175.83008 34889 ft 467 kts 36°
2026-04-29 18:20 -7.15486 175.86782 34890 ft 467 kts 36°
2026-04-29 18:20 -7.10165 175.90550 34888 ft 467 kts 36°
2026-04-29 18:21 -7.04845 175.94317 34891 ft 467 kts 36°
2026-04-29 18:21 -6.99565 175.98052 34889 ft 467 kts 36°
2026-04-29 18:22 -6.94248 176.01813 34888 ft 466 kts 36°
2026-04-29 18:22 -6.88936 176.05570 34891 ft 466 kts 36°
2026-04-29 18:23 -6.83629 176.09323 34887 ft 465 kts 36°
2026-04-29 18:23 -6.78367 176.13044 34889 ft 465 kts 36°
2026-04-29 18:24 -6.73077 176.16782 34887 ft 464 kts 36°
2026-04-29 18:24 -6.67791 176.20516 34890 ft 464 kts 36°
2026-04-29 18:25 -6.62502 176.24253 34888 ft 463 kts 36°
2026-04-29 18:25 -6.57232 176.27974 34887 ft 463 kts 36°
2026-04-29 18:26 -6.51993 176.31672 34889 ft 462 kts 36°
2026-04-29 18:26 -6.46729 176.35387 34889 ft 462 kts 36°
2026-04-29 18:27 -6.41457 176.39107 34890 ft 462 kts 36°
2026-04-29 18:27 -6.36198 176.42817 34889 ft 462 kts 36°
2026-04-29 18:28 -6.30936 176.46528 34889 ft 462 kts 36°
2026-04-29 18:28 -6.25673 176.50238 34889 ft 462 kts 36°
2026-04-29 18:29 -6.20446 176.53922 34889 ft 461 kts 36°
2026-04-29 18:29 -6.15186 176.57629 34889 ft 462 kts 36°
2026-04-29 18:30 -6.09914 176.61344 34889 ft 462 kts 36°
2026-04-29 18:30 -6.04656 176.65048 34889 ft 462 kts 37°
2026-04-29 18:31 -5.99423 176.68735 34890 ft 462 kts 36°
2026-04-29 18:31 -5.94151 176.72447 34885 ft 461 kts 37°
2026-04-29 18:32 -5.88898 176.76144 34890 ft 461 kts 37°
2026-04-29 18:32 -5.81009 176.81695 34889 ft 461 kts 37°
2026-04-29 18:33 -5.75777 176.85376 34889 ft 461 kts 37°
2026-04-29 18:33 -5.70519 176.89074 34888 ft 461 kts 37°
2026-04-29 18:34 -5.66147 176.92148 34889 ft 461 kts 37°
2026-04-29 18:34 -5.59989 176.96476 34879 ft 462 kts 37°
2026-04-29 18:35 -5.54720 177.00179 34879 ft 462 kts 37°
2026-04-29 18:35 -5.49449 177.03883 34881 ft 462 kts 37°
2026-04-29 18:36 -5.44208 177.07565 34879 ft 463 kts 37°
2026-04-29 18:36 -5.38929 177.11272 34879 ft 463 kts 37°
2026-04-29 18:37 -5.33649 177.14980 34883 ft 463 kts 37°
2026-04-29 18:37 -5.28377 177.18682 34878 ft 463 kts 37°
2026-04-29 18:38 -5.23103 177.22384 34881 ft 462 kts 37°
2026-04-29 18:38 -5.17858 177.26065 34878 ft 462 kts 37°
2026-04-29 18:39 -5.12579 177.29768 34881 ft 462 kts 37°
2026-04-29 18:39 -5.07302 177.33471 34882 ft 462 kts 37°
2026-04-29 18:40 -5.02022 177.37176 34878 ft 462 kts 37°
2026-04-29 18:40 -4.96756 177.40872 34878 ft 462 kts 37°
2026-04-29 18:41 -4.86179 177.48158 34883 ft 462 kts 36°
2026-04-29 18:42 -4.80842 177.51756 34890 ft 462 kts 36°
2026-04-29 18:42 -4.75550 177.55334 34889 ft 462 kts 36°
2026-04-29 18:43 -4.70232 177.58940 34889 ft 462 kts 37°
2026-04-29 18:43 -4.64907 177.62552 34889 ft 461 kts 36°
2026-04-29 18:44 -4.59589 177.66160 34891 ft 461 kts 37°
2026-04-29 18:44 -4.54264 177.69772 34888 ft 461 kts 37°
2026-04-29 18:45 -4.48948 177.73377 34891 ft 461 kts 37°
2026-04-29 18:45 -4.43652 177.76968 34888 ft 461 kts 37°
2026-04-29 18:46 -4.38330 177.80575 34889 ft 461 kts 37°
2026-04-29 18:46 -4.33050 177.84153 34889 ft 461 kts 37°
2026-04-29 18:47 -4.27730 177.87758 34888 ft 461 kts 37°
2026-04-29 18:47 -4.22418 177.91356 34890 ft 461 kts 37°
2026-04-29 18:48 -4.17100 177.94958 34888 ft 461 kts 37°
2026-04-29 18:48 -4.11790 177.98555 34889 ft 460 kts 37°
2026-04-29 18:49 -4.06481 178.02150 34891 ft 461 kts 37°
2026-04-29 18:49 -4.03849 178.03932 34996 ft 463 kts 37°
2026-04-29 18:49 -4.01185 178.05735 35286 ft 461 kts 37°
2026-04-29 18:50 -3.98535 178.07528 35603 ft 458 kts 37°
2026-04-29 18:50 -3.95895 178.09315 35832 ft 458 kts 37°
2026-04-29 18:50 -3.93253 178.11104 36001 ft 459 kts 37°
2026-04-29 18:50 -3.90596 178.12903 36160 ft 460 kts 37°
2026-04-29 18:51 -3.87942 178.14700 36306 ft 461 kts 37°
2026-04-29 18:51 -3.85276 178.16504 36499 ft 461 kts 37°
2026-04-29 18:51 -3.82624 178.18298 36702 ft 460 kts 37°
2026-04-29 18:51 -3.79981 178.20086 36900 ft 459 kts 37°
2026-04-29 18:52 -3.74689 178.23666 36888 ft 456 kts 37°
2026-04-29 18:52 -3.69488 178.27182 36882 ft 450 kts 37°
2026-04-29 18:53 -3.64302 178.30690 36888 ft 448 kts 37°
2026-04-29 18:53 -3.59149 178.34175 36891 ft 446 kts 37°
2026-04-29 18:54 -3.54043 178.37627 36891 ft 445 kts 37°
2026-04-29 18:54 -3.48900 178.41105 36893 ft 447 kts 37°
2026-04-29 18:55 -3.43741 178.44591 36895 ft 448 kts 37°
2026-04-29 18:55 -3.38558 178.48095 36894 ft 450 kts 37°
2026-04-29 18:56 -3.33357 178.51609 36893 ft 452 kts 37°
2026-04-29 18:56 -3.28141 178.55136 36892 ft 453 kts 37°
2026-04-29 18:57 -3.22899 178.58675 36889 ft 454 kts 37°
2026-04-29 18:57 -3.17658 178.62215 36889 ft 455 kts 36°
2026-04-29 18:58 -3.12449 178.65732 36886 ft 454 kts 37°
2026-04-29 18:58 -3.07221 178.69263 36888 ft 453 kts 36°
2026-04-29 18:59 -3.01986 178.72800 36891 ft 453 kts 37°
2026-04-29 18:59 -2.96755 178.76331 36888 ft 453 kts 37°
2026-04-29 19:00 -2.91556 178.79840 36887 ft 452 kts 36°
2026-04-29 19:00 -2.86333 178.83364 36888 ft 452 kts 36°
2026-04-29 19:01 -2.81142 178.86868 36889 ft 452 kts 36°
2026-04-29 19:01 -2.75922 178.90391 36888 ft 451 kts 36°
2026-04-29 19:02 -2.71596 178.93310 36891 ft 451 kts 37°
2026-04-29 19:02 -2.66391 178.96821 36881 ft 451 kts 36°
2026-04-29 19:03 -2.61188 179.00331 36880 ft 451 kts 36°
2026-04-29 19:03 -2.55981 179.03844 36880 ft 451 kts 36°
2026-04-29 19:04 -2.50775 179.07356 36880 ft 451 kts 36°
2026-04-29 19:04 -2.45602 179.10845 36879 ft 451 kts 36°
2026-04-29 19:05 -2.40402 179.14352 36878 ft 451 kts 36°
2026-04-29 19:05 -2.35187 179.17868 36880 ft 451 kts 36°
2026-04-29 19:06 -2.29985 179.21375 36879 ft 451 kts 36°
2026-04-29 19:07 -2.22199 179.26625 36872 ft 451 kts 36°
2026-04-29 19:07 -2.16981 179.30143 36871 ft 452 kts 37°
2026-04-29 19:08 -2.11763 179.33660 36870 ft 452 kts 37°
2026-04-29 19:08 -2.06576 179.37156 36871 ft 452 kts 36°
2026-04-29 19:09 -2.01360 179.40672 36870 ft 451 kts 36°
2026-04-29 19:09 -1.96150 179.44183 36883 ft 451 kts 36°
2026-04-29 19:10 -1.90937 179.47697 36896 ft 451 kts 36°
2026-04-29 19:10 -1.85769 179.51180 36909 ft 451 kts 36°
2026-04-29 19:11 -1.80551 179.54695 36910 ft 452 kts 36°
2026-04-29 19:11 -1.75333 179.58211 36906 ft 452 kts 36°
2026-04-29 19:12 -1.70105 179.61733 36904 ft 452 kts 36°
2026-04-29 19:12 -1.64908 179.65233 36911 ft 452 kts 36°
2026-04-29 19:13 -1.59683 179.68753 36903 ft 453 kts 36°
2026-04-29 19:13 -1.54461 179.72271 36905 ft 453 kts 36°
2026-04-29 19:14 -1.49225 179.75797 36914 ft 452 kts 36°
2026-04-29 19:14 -1.44002 179.79315 36904 ft 452 kts 36°
2026-04-29 19:15 -1.38812 179.82810 36907 ft 452 kts 36°
2026-04-29 19:15 -1.33586 179.86331 36912 ft 452 kts 36°
2026-04-29 19:16 -1.28393 179.89828 36911 ft 452 kts 36°
2026-04-29 19:16 -1.23169 179.93347 36911 ft 452 kts 36°
2026-04-29 19:17 -1.17936 179.96873 36902 ft 452 kts 36°
2026-04-29 19:17 -1.12765 -179.99645 36908 ft 452 kts 36°
2026-04-29 19:18 -1.07615 -179.96180 36960 ft 451 kts 36°
2026-04-29 19:18 -1.02394 -179.92666 36960 ft 452 kts 36°
2026-04-29 19:19 -0.97179 -179.89153 36964 ft 452 kts 35°
2026-04-29 19:19 -0.91981 -179.85651 36964 ft 453 kts 35°
2026-04-29 19:20 -0.86738 -179.82120 36965 ft 454 kts 35°
2026-04-29 19:20 -0.81501 -179.78592 36962 ft 454 kts 35°
2026-04-29 19:21 -0.76255 -179.75058 36963 ft 455 kts 35°
2026-04-29 19:21 -0.71037 -179.71542 36964 ft 455 kts 35°
2026-04-29 19:22 -0.65785 -179.68004 36961 ft 455 kts 35°
2026-04-29 19:22 -0.60531 -179.64465 36961 ft 455 kts 35°
2026-04-29 19:23 -0.55278 -179.60926 36967 ft 455 kts 35°
2026-04-29 19:23 -0.50058 -179.57410 36961 ft 455 kts 34°
2026-04-29 19:24 -0.44799 -179.53868 36964 ft 455 kts 34°
2026-04-29 19:24 -0.39549 -179.50331 36962 ft 455 kts 34°
2026-04-29 19:25 -0.34301 -179.46795 36963 ft 455 kts 34°
2026-04-29 19:25 -0.29057 -179.43262 36962 ft 454 kts 34°
2026-04-29 19:26 -0.23843 -179.39748 36963 ft 454 kts 34°
2026-04-29 19:26 -0.18806 -179.36225 36959 ft 454 kts 37°
2026-04-29 19:27 -0.13807 -179.32421 36965 ft 454 kts 38°
2026-04-29 19:27 -0.08806 -179.28569 36963 ft 454 kts 38°
2026-04-29 19:28 -0.03794 -179.24738 36962 ft 453 kts 38°
2026-04-29 19:28 0.01227 -179.20922 36962 ft 453 kts 38°
2026-04-29 19:29 0.06252 -179.17110 36965 ft 453 kts 37°
2026-04-29 19:29 0.11287 -179.13293 36964 ft 454 kts 37°
2026-04-29 19:30 0.16316 -179.09479 36965 ft 454 kts 37°
2026-04-29 19:30 0.21343 -179.05664 36962 ft 454 kts 37°
2026-04-29 19:31 0.26340 -179.01873 36965 ft 454 kts 37°
2026-04-29 19:31 0.31375 -178.98053 36962 ft 454 kts 37°
2026-04-29 19:32 0.36407 -178.94235 36964 ft 454 kts 37°
2026-04-29 19:32 0.41451 -178.90408 36963 ft 454 kts 37°
2026-04-29 19:33 0.45638 -178.87231 36962 ft 454 kts 37°
2026-04-29 19:33 0.49780 -178.84088 36963 ft 454 kts 37°
2026-04-29 19:34 0.54819 -178.80266 36962 ft 454 kts 37°
2026-04-29 19:34 0.59867 -178.76436 36962 ft 454 kts 37°
2026-04-29 19:35 0.64875 -178.72636 36965 ft 455 kts 37°
2026-04-29 19:35 0.69921 -178.68807 36962 ft 455 kts 37°
2026-04-29 19:36 0.74962 -178.64981 36962 ft 455 kts 37°
2026-04-29 19:36 0.80000 -178.61158 36965 ft 455 kts 37°
2026-04-29 19:37 0.85046 -178.57329 36963 ft 455 kts 37°
2026-04-29 19:37 0.90097 -178.53496 36963 ft 455 kts 37°
2026-04-29 19:38 0.95115 -178.49688 36963 ft 455 kts 37°
2026-04-29 19:38 1.00161 -178.45857 36963 ft 455 kts 37°
2026-04-29 19:39 1.05206 -178.42028 36962 ft 455 kts 37°
2026-04-29 19:39 1.10244 -178.38205 36965 ft 455 kts 36°
2026-04-29 19:40 1.15291 -178.34373 36964 ft 455 kts 37°
2026-04-29 19:40 1.20305 -178.30566 36962 ft 455 kts 36°
2026-04-29 19:41 1.25353 -178.26735 36966 ft 455 kts 36°
2026-04-29 19:41 1.30399 -178.22904 36965 ft 455 kts 36°
2026-04-29 19:42 1.35450 -178.19069 36960 ft 455 kts 36°
2026-04-29 19:42 1.40491 -178.15242 36966 ft 455 kts 36°
2026-04-29 19:43 1.45511 -178.11430 36963 ft 456 kts 36°
2026-04-29 19:43 1.50564 -178.07592 36963 ft 456 kts 36°
2026-04-29 19:44 1.55623 -178.03751 36962 ft 456 kts 36°
2026-04-29 19:44 1.60673 -177.99916 36962 ft 456 kts 36°
2026-04-29 19:45 1.65736 -177.96071 36963 ft 457 kts 36°
2026-04-29 19:45 1.70772 -177.92247 36964 ft 457 kts 36°
2026-04-29 19:46 1.75838 -177.88399 36963 ft 457 kts 36°
2026-04-29 19:46 1.80910 -177.84546 36962 ft 458 kts 36°
2026-04-29 19:47 1.85988 -177.80689 36964 ft 458 kts 36°
2026-04-29 19:47 1.91058 -177.76837 36962 ft 458 kts 36°
2026-04-29 19:48 1.96097 -177.73008 36964 ft 458 kts 36°
2026-04-29 19:48 2.01163 -177.69158 36964 ft 458 kts 36°
2026-04-29 19:49 2.06231 -177.65307 36960 ft 458 kts 36°
2026-04-29 19:49 2.11313 -177.61445 36964 ft 458 kts 36°
2026-04-29 19:50 2.16380 -177.57593 37003 ft 457 kts 36°
2026-04-29 19:50 2.21410 -177.53769 37010 ft 456 kts 36°
2026-04-29 19:51 2.26476 -177.49917 37009 ft 457 kts 36°
2026-04-29 19:51 2.30688 -177.46716 37016 ft 457 kts 36°
2026-04-29 19:52 2.35756 -177.42863 37019 ft 457 kts 36°
2026-04-29 19:52 2.40822 -177.39012 37019 ft 458 kts 36°
2026-04-29 19:53 2.45897 -177.35152 37019 ft 458 kts 36°
2026-04-29 19:53 2.50941 -177.31316 37056 ft 458 kts 36°
2026-04-29 19:54 2.58557 -177.25523 37068 ft 458 kts 36°
2026-04-29 19:54 2.63613 -177.21678 37066 ft 459 kts 36°
2026-04-29 19:55 2.68706 -177.17804 37065 ft 459 kts 36°
2026-04-29 19:55 2.73796 -177.13930 37065 ft 460 kts 36°
2026-04-29 19:56 2.78887 -177.10055 37065 ft 460 kts 36°
2026-04-29 19:56 2.83980 -177.06180 37064 ft 460 kts 36°
2026-04-29 19:57 2.89073 -177.02303 37064 ft 460 kts 36°
2026-04-29 19:57 2.94143 -176.98445 37064 ft 460 kts 36°
2026-04-29 19:58 2.99234 -176.94569 37064 ft 459 kts 36°
2026-04-29 19:58 3.04322 -176.90694 37065 ft 459 kts 36°
2026-04-29 19:59 3.09411 -176.86820 37064 ft 459 kts 36°
2026-04-29 19:59 3.14458 -176.82975 37066 ft 459 kts 36°
2026-04-29 20:00 3.19555 -176.79092 37066 ft 458 kts 36°
2026-04-29 20:00 3.24630 -176.75226 37074 ft 458 kts 36°
2026-04-29 20:01 3.29702 -176.71361 37073 ft 458 kts 36°
2026-04-29 20:01 3.34753 -176.67512 37075 ft 458 kts 36°
2026-04-29 20:02 3.39826 -176.63646 37074 ft 458 kts 36°
2026-04-29 20:02 3.44050 -176.60426 37074 ft 458 kts 36°
2026-04-29 20:03 3.49987 -176.55900 37075 ft 459 kts 36°
2026-04-29 20:03 3.55032 -176.52054 37073 ft 459 kts 36°
2026-04-29 20:04 3.60109 -176.48182 37074 ft 459 kts 36°
2026-04-29 20:04 3.65188 -176.44308 37065 ft 459 kts 36°
2026-04-29 20:05 3.70266 -176.40433 37055 ft 459 kts 36°
2026-04-29 20:05 3.75346 -176.36555 37055 ft 459 kts 36°
2026-04-29 20:06 3.80424 -176.32679 37054 ft 458 kts 36°
2026-04-29 20:06 3.85457 -176.28751 37055 ft 458 kts 38°
2026-04-29 20:07 3.90384 -176.24758 37055 ft 458 kts 38°
2026-04-29 20:07 3.95328 -176.20738 37055 ft 458 kts 38°
2026-04-29 20:08 3.99450 -176.17399 37061 ft 458 kts 38°
2026-04-29 20:08 4.05247 -176.12714 37065 ft 458 kts 38°
2026-04-29 20:09 4.10205 -176.08713 37065 ft 458 kts 38°
2026-04-29 20:09 4.15165 -176.04709 37066 ft 458 kts 38°
2026-04-29 20:10 4.20123 -176.00706 37065 ft 458 kts 38°
2026-04-29 20:10 4.24943 -175.96812 37065 ft 458 kts 38°
2026-04-29 20:11 4.29875 -175.92827 37064 ft 458 kts 38°
2026-04-29 20:11 4.34832 -175.88821 37065 ft 458 kts 38°
2026-04-29 20:12 4.39798 -175.84808 37065 ft 458 kts 38°
2026-04-29 20:12 4.43716 -175.81642 37066 ft 459 kts 38°
2026-04-29 20:13 4.47876 -175.78279 37064 ft 459 kts 38°
2026-04-29 20:13 4.53653 -175.73607 37065 ft 459 kts 38°
2026-04-29 20:14 4.58629 -175.69583 37064 ft 459 kts 38°
2026-04-29 20:14 4.63609 -175.65554 37065 ft 459 kts 38°
2026-04-29 20:15 4.68585 -175.61529 37065 ft 459 kts 38°
2026-04-29 20:15 4.73561 -175.57504 37066 ft 459 kts 38°
2026-04-29 20:16 4.78537 -175.53477 37065 ft 460 kts 38°
2026-04-29 20:16 4.83486 -175.49471 37066 ft 460 kts 38°
2026-04-29 20:17 4.88468 -175.45437 37064 ft 460 kts 38°
2026-04-29 20:17 4.93455 -175.41398 37066 ft 460 kts 38°
2026-04-29 20:18 4.98438 -175.37361 37064 ft 460 kts 38°
2026-04-29 20:18 5.03423 -175.33323 37065 ft 460 kts 38°
2026-04-29 20:19 5.08377 -175.29307 37063 ft 460 kts 38°
2026-04-29 20:19 5.13361 -175.25268 37065 ft 460 kts 38°
2026-04-29 20:20 5.18347 -175.21226 37065 ft 460 kts 38°
2026-04-29 20:20 5.23331 -175.17186 37064 ft 460 kts 38°
2026-04-29 20:21 5.28318 -175.13142 37067 ft 460 kts 38°
2026-04-29 20:21 5.33264 -175.09129 37111 ft 459 kts 38°
2026-04-29 20:22 5.38242 -175.05090 37120 ft 459 kts 38°
2026-04-29 20:22 5.43187 -175.01077 37121 ft 460 kts 38°
2026-04-29 20:23 5.48168 -174.97035 37120 ft 460 kts 38°
2026-04-29 20:23 5.53163 -174.92981 37120 ft 461 kts 38°
2026-04-29 20:24 5.58156 -174.88927 37120 ft 461 kts 38°
2026-04-29 20:24 5.63118 -174.84896 37120 ft 462 kts 38°
2026-04-29 20:25 5.68110 -174.80840 37120 ft 462 kts 38°
2026-04-29 20:25 5.73105 -174.76780 37119 ft 462 kts 38°
2026-04-29 20:26 5.78102 -174.72720 37120 ft 462 kts 38°
2026-04-29 20:26 5.83103 -174.68654 37119 ft 462 kts 38°
2026-04-29 20:27 5.87254 -174.65279 37120 ft 462 kts 38°
2026-04-29 20:27 5.93094 -174.60530 37120 ft 462 kts 38°
2026-04-29 20:28 5.98089 -174.56467 37120 ft 462 kts 38°
2026-04-29 20:28 6.03050 -174.52429 37117 ft 462 kts 38°
2026-04-29 20:29 6.08052 -174.48357 37122 ft 462 kts 38°
2026-04-29 20:29 6.13050 -174.44288 37119 ft 462 kts 38°
2026-04-29 20:30 6.18050 -174.40216 37121 ft 462 kts 38°
2026-04-29 20:30 6.23021 -174.36167 37123 ft 462 kts 38°
2026-04-29 20:31 6.28025 -174.32090 37119 ft 463 kts 38°
2026-04-29 20:31 6.33032 -174.28012 37109 ft 463 kts 38°
2026-04-29 20:32 6.38039 -174.23930 37113 ft 463 kts 38°
2026-04-29 20:32 6.42196 -174.20539 37109 ft 463 kts 38°
2026-04-29 20:33 6.48008 -174.15798 37113 ft 463 kts 38°
2026-04-29 20:33 6.53010 -174.11719 37110 ft 463 kts 38°
2026-04-29 20:34 6.58022 -174.07629 37119 ft 463 kts 38°
2026-04-29 20:34 6.63028 -174.03543 37120 ft 463 kts 38°
2026-04-29 20:35 6.68001 -173.99482 37121 ft 463 kts 38°
2026-04-29 20:35 6.73007 -173.95394 37120 ft 463 kts 38°
2026-04-29 20:36 6.78017 -173.91302 37118 ft 464 kts 38°
2026-04-29 20:36 6.83043 -173.87195 37109 ft 464 kts 38°
2026-04-29 20:37 6.88030 -173.83118 37110 ft 464 kts 38°
2026-04-29 20:37 6.93046 -173.79017 37111 ft 465 kts 38°
2026-04-29 20:38 6.98066 -173.74911 37112 ft 465 kts 38°
2026-04-29 20:38 7.03086 -173.70804 37110 ft 465 kts 38°
2026-04-29 20:39 7.08110 -173.66692 37110 ft 465 kts 38°
2026-04-29 20:39 7.13111 -173.62600 37109 ft 465 kts 38°
2026-04-29 20:40 7.18139 -173.58483 37109 ft 466 kts 38°
2026-04-29 20:40 7.22322 -173.55056 37112 ft 466 kts 38°
2026-04-29 20:41 7.27352 -173.50935 37109 ft 466 kts 38°
2026-04-29 20:41 7.32379 -173.46815 37109 ft 466 kts 38°
2026-04-29 20:42 7.37410 -173.42692 37110 ft 466 kts 38°
2026-04-29 20:42 7.42447 -173.38561 37109 ft 466 kts 38°
2026-04-29 20:43 7.47448 -173.34458 37111 ft 467 kts 38°
2026-04-29 20:43 7.52483 -173.30327 37110 ft 467 kts 38°
2026-04-29 20:44 7.57525 -173.26188 37109 ft 467 kts 38°
2026-04-29 20:44 7.62563 -173.22051 37113 ft 467 kts 38°
2026-04-29 20:45 7.67599 -173.17914 37110 ft 466 kts 38°
2026-04-29 20:45 7.72600 -173.13805 37111 ft 467 kts 38°
2026-04-29 20:46 7.77661 -173.09643 37119 ft 466 kts 38°
2026-04-29 20:46 7.82659 -173.05534 37120 ft 467 kts 38°
2026-04-29 20:47 7.87676 -173.01367 37120 ft 467 kts 38°
2026-04-29 20:47 7.92677 -172.97167 37120 ft 467 kts 38°
2026-04-29 20:48 7.97675 -172.92962 37120 ft 468 kts 38°
2026-04-29 20:48 8.02644 -172.88785 37111 ft 468 kts 38°
2026-04-29 20:49 8.07665 -172.84567 37122 ft 469 kts 38°
2026-04-29 20:49 8.12701 -172.80337 37123 ft 470 kts 38°
2026-04-29 20:50 8.17706 -172.76130 37122 ft 472 kts 38°
2026-04-29 20:50 8.22756 -172.71884 37120 ft 472 kts 38°
2026-04-29 20:51 8.27814 -172.67630 37121 ft 473 kts 38°
2026-04-29 20:51 8.32879 -172.63368 37118 ft 473 kts 38°
2026-04-29 20:52 8.37939 -172.59110 37119 ft 473 kts 38°
2026-04-29 20:52 8.42967 -172.54877 37120 ft 473 kts 38°
2026-04-29 20:53 8.48025 -172.50616 37119 ft 473 kts 38°
2026-04-29 20:53 8.53086 -172.46352 37121 ft 473 kts 38°
2026-04-29 20:54 8.60669 -172.39959 37120 ft 473 kts 38°
2026-04-29 20:55 8.65722 -172.35697 37120 ft 473 kts 38°
2026-04-29 20:55 8.70750 -172.31457 37118 ft 474 kts 38°
2026-04-29 20:56 8.75810 -172.27186 37121 ft 474 kts 38°
2026-04-29 20:56 8.80873 -172.22912 37118 ft 474 kts 38°
2026-04-29 20:57 8.85942 -172.18630 37123 ft 475 kts 38°
2026-04-29 20:57 8.91017 -172.14343 37121 ft 475 kts 38°
2026-04-29 20:58 8.96067 -172.10075 37117 ft 476 kts 38°
2026-04-29 20:58 9.01150 -172.05777 37122 ft 476 kts 38°
2026-04-29 20:59 9.06239 -172.01473 37120 ft 477 kts 38°
2026-04-29 20:59 9.11347 -171.97152 37120 ft 478 kts 38°
2026-04-29 21:00 9.16454 -171.92829 37111 ft 479 kts 38°
2026-04-29 21:00 9.21533 -171.88528 37110 ft 479 kts 38°
2026-04-29 21:01 9.26656 -171.84187 37116 ft 480 kts 38°
2026-04-29 21:01 9.31789 -171.79837 37109 ft 481 kts 38°
2026-04-29 21:02 9.36893 -171.75510 37111 ft 481 kts 38°
2026-04-29 21:02 9.42033 -171.71151 37113 ft 482 kts 38°
2026-04-29 21:03 9.47177 -171.66786 37123 ft 482 kts 38°
2026-04-29 21:03 9.52330 -171.62413 37120 ft 482 kts 38°
2026-04-29 21:04 9.57477 -171.58042 37120 ft 482 kts 38°
2026-04-29 21:04 9.62594 -171.53694 37121 ft 483 kts 38°
2026-04-29 21:05 9.67741 -171.49320 37121 ft 483 kts 38°
2026-04-29 21:05 9.72891 -171.44942 37121 ft 483 kts 38°
2026-04-29 21:06 9.78036 -171.40565 37119 ft 483 kts 38°
2026-04-29 21:06 9.83181 -171.36187 37121 ft 482 kts 38°
2026-04-29 21:07 9.88333 -171.31800 37119 ft 482 kts 38°
2026-04-29 21:07 9.93440 -171.27451 37123 ft 482 kts 38°
2026-04-29 21:08 9.98581 -171.23071 37119 ft 481 kts 38°
2026-04-29 21:08 10.03688 -171.18719 37109 ft 482 kts 38°
2026-04-29 21:09 10.08823 -171.14340 37125 ft 482 kts 38°
2026-04-29 21:09 10.13963 -171.09955 37124 ft 483 kts 38°
2026-04-29 21:10 10.19117 -171.05555 37122 ft 484 kts 38°
2026-04-29 21:10 10.24278 -171.01147 37111 ft 485 kts 38°
2026-04-29 21:11 10.29443 -170.96735 37107 ft 485 kts 38°
2026-04-29 21:11 10.34574 -170.92351 37112 ft 485 kts 38°
2026-04-29 21:12 10.39736 -170.87937 37112 ft 485 kts 38°
2026-04-29 21:12 10.44898 -170.83521 37114 ft 485 kts 38°
2026-04-29 21:13 10.50060 -170.79104 37121 ft 485 kts 38°
2026-04-29 21:13 10.55225 -170.74683 37121 ft 485 kts 38°
2026-04-29 21:14 10.60391 -170.70259 37120 ft 486 kts 38°
2026-04-29 21:14 10.65525 -170.65859 37119 ft 486 kts 38°
2026-04-29 21:15 10.70696 -170.61425 37118 ft 486 kts 38°
2026-04-29 21:15 10.75872 -170.56986 37120 ft 487 kts 38°
2026-04-29 21:16 10.81052 -170.52541 37118 ft 487 kts 38°
2026-04-29 21:16 10.86240 -170.48087 37122 ft 487 kts 38°
2026-04-29 21:17 10.91428 -170.43631 37120 ft 488 kts 38°
2026-04-29 21:17 10.96596 -170.39190 37119 ft 488 kts 38°
2026-04-29 21:18 11.01790 -170.34724 37118 ft 489 kts 38°
2026-04-29 21:18 11.06997 -170.30246 37120 ft 490 kts 38°
2026-04-29 21:19 11.12217 -170.25754 37119 ft 491 kts 38°
2026-04-29 21:19 11.17415 -170.21278 37129 ft 492 kts 38°
2026-04-29 21:20 11.22496 -170.16902 37127 ft 493 kts 38°
2026-04-29 21:20 11.27748 -170.12376 37130 ft 494 kts 38°
2026-04-29 21:21 11.33007 -170.07840 37130 ft 495 kts 38°
2026-04-29 21:21 11.38250 -170.03317 37132 ft 496 kts 38°
2026-04-29 21:22 11.43529 -169.98761 37129 ft 497 kts 38°
2026-04-29 21:22 11.48819 -169.94193 37132 ft 498 kts 38°
2026-04-29 21:23 11.54085 -169.89643 37130 ft 499 kts 38°
2026-04-29 21:23 11.59394 -169.85053 37126 ft 500 kts 38°
2026-04-29 21:24 11.64721 -169.80446 37131 ft 501 kts 38°
2026-04-29 21:24 11.70001 -169.75876 37130 ft 501 kts 38°
2026-04-29 21:25 11.75323 -169.71268 37128 ft 501 kts 38°
2026-04-29 21:25 11.80645 -169.66657 37128 ft 501 kts 38°
2026-04-29 21:26 11.85959 -169.62051 37128 ft 501 kts 38°
2026-04-29 21:26 11.91282 -169.57434 37129 ft 500 kts 38°
2026-04-29 21:27 11.95690 -169.53610 37128 ft 500 kts 38°
2026-04-29 21:27 12.01890 -169.48225 37129 ft 500 kts 38°
2026-04-29 21:28 12.07162 -169.43642 37136 ft 499 kts 38°
2026-04-29 21:28 12.12452 -169.39044 37139 ft 499 kts 38°
2026-04-29 21:29 12.17509 -169.34152 37150 ft 500 kts 43°
2026-04-29 21:29 12.21540 -169.29905 37139 ft 501 kts 44°
2026-04-29 21:30 12.27167 -169.23942 37141 ft 500 kts 44°
2026-04-29 21:30 12.31212 -169.19704 37137 ft 500 kts 44°
2026-04-29 21:31 12.36093 -169.14620 37139 ft 500 kts 43°
2026-04-29 21:31 12.40982 -169.09534 37139 ft 500 kts 43°
2026-04-29 21:32 12.45866 -169.04449 37139 ft 500 kts 43°
2026-04-29 21:32 12.50743 -168.99366 37140 ft 500 kts 44°
2026-04-29 21:33 12.55581 -168.94320 37138 ft 500 kts 44°
2026-04-29 21:33 12.60449 -168.89239 37140 ft 500 kts 44°
2026-04-29 21:34 12.65319 -168.84154 37139 ft 500 kts 44°
2026-04-29 21:34 12.70194 -168.79061 37139 ft 500 kts 44°
2026-04-29 21:35 12.75063 -168.73971 37137 ft 500 kts 44°
2026-04-29 21:35 12.79905 -168.68906 37138 ft 500 kts 43°
2026-04-29 21:36 12.84779 -168.63804 37139 ft 500 kts 43°
2026-04-29 21:36 12.89654 -168.58699 37138 ft 501 kts 43°
2026-04-29 21:37 12.94509 -168.53611 37140 ft 501 kts 43°
2026-04-29 21:37 12.99393 -168.48491 37141 ft 502 kts 43°
2026-04-29 21:38 13.04280 -168.43364 37143 ft 502 kts 43°
2026-04-29 21:38 13.09161 -168.38239 37150 ft 502 kts 43°
2026-04-29 21:39 13.14047 -168.33107 37147 ft 503 kts 43°
2026-04-29 21:39 13.18939 -168.27965 37149 ft 504 kts 43°
2026-04-29 21:40 13.23841 -168.22811 37146 ft 505 kts 43°
2026-04-29 21:40 13.28719 -168.17678 37147 ft 506 kts 43°
2026-04-29 21:41 13.33641 -168.12494 37149 ft 506 kts 43°
2026-04-29 21:41 13.38572 -168.07298 37149 ft 507 kts 43°
2026-04-29 21:42 13.43478 -168.02125 37148 ft 508 kts 43°
2026-04-29 21:42 13.48419 -167.96913 37141 ft 509 kts 42°
2026-04-29 21:43 13.53367 -167.91689 37152 ft 510 kts 42°
2026-04-29 21:43 13.58326 -167.86450 37148 ft 511 kts 42°
2026-04-29 21:44 13.63288 -167.81203 37150 ft 512 kts 42°
2026-04-29 21:44 13.68254 -167.75950 37148 ft 513 kts 42°
2026-04-29 21:45 13.73229 -167.70683 37148 ft 513 kts 42°
2026-04-29 21:45 13.78198 -167.65416 37147 ft 513 kts 42°
2026-04-29 21:46 13.83167 -167.60148 37147 ft 512 kts 42°
2026-04-29 21:46 13.88192 -167.55034 37146 ft 511 kts 40°
2026-04-29 21:47 13.93348 -167.50009 37151 ft 510 kts 39°
2026-04-29 21:47 13.98501 -167.44976 37155 ft 510 kts 40°
2026-04-29 21:48 14.03628 -167.39918 37162 ft 510 kts 40°
2026-04-29 21:48 14.08732 -167.34857 37154 ft 509 kts 40°
2026-04-29 21:49 14.13828 -167.29798 37158 ft 508 kts 40°
2026-04-29 21:49 14.18930 -167.24733 37157 ft 508 kts 40°
2026-04-29 21:50 14.23987 -167.19710 37158 ft 507 kts 40°
2026-04-29 21:50 14.29073 -167.14658 37156 ft 507 kts 40°
2026-04-29 21:51 14.34151 -167.09608 37161 ft 506 kts 40°
2026-04-29 21:51 14.41720 -167.02076 37159 ft 505 kts 40°
2026-04-29 21:52 14.46784 -166.97032 37158 ft 505 kts 40°
2026-04-29 21:52 14.51807 -166.92025 37156 ft 504 kts 40°
2026-04-29 21:53 14.56845 -166.87001 37156 ft 503 kts 40°
2026-04-29 21:53 14.61889 -166.81968 37158 ft 503 kts 40°
2026-04-29 21:54 14.66926 -166.76938 37160 ft 503 kts 40°
2026-04-29 21:54 14.71919 -166.71948 37156 ft 502 kts 39°
2026-04-29 21:55 14.76944 -166.66924 37161 ft 502 kts 40°
2026-04-29 21:55 14.81965 -166.61899 37169 ft 502 kts 40°
2026-04-29 21:56 14.86986 -166.56872 37166 ft 502 kts 40°
2026-04-29 21:56 14.91979 -166.51867 37170 ft 502 kts 40°
2026-04-29 21:57 14.96999 -166.46833 37164 ft 502 kts 40°
2026-04-29 21:57 15.02011 -166.41806 37166 ft 502 kts 40°
2026-04-29 21:58 15.06988 -166.36808 37169 ft 501 kts 40°
2026-04-29 21:58 15.11986 -166.31785 37165 ft 500 kts 40°
2026-04-29 21:59 15.16986 -166.26758 37166 ft 500 kts 40°
2026-04-29 21:59 15.21970 -166.21742 37165 ft 499 kts 40°
2026-04-29 22:00 15.26946 -166.16732 37162 ft 498 kts 40°
2026-04-29 22:00 15.31876 -166.11764 37170 ft 497 kts 40°
2026-04-29 22:01 15.36837 -166.06762 37163 ft 496 kts 40°
2026-04-29 22:01 15.41758 -166.01796 37162 ft 495 kts 40°
2026-04-29 22:02 15.46692 -165.96814 37167 ft 494 kts 39°
2026-04-29 22:02 15.51624 -165.91831 37170 ft 494 kts 40°
2026-04-29 22:03 15.56541 -165.86859 37169 ft 493 kts 39°
2026-04-29 22:03 15.61455 -165.81887 37166 ft 493 kts 39°
2026-04-29 22:04 15.66337 -165.76944 37169 ft 493 kts 39°
2026-04-29 22:04 15.71246 -165.71970 37163 ft 493 kts 40°
2026-04-29 22:05 15.76165 -165.66982 37169 ft 494 kts 40°
2026-04-29 22:06 15.83538 -165.59498 37164 ft 494 kts 40°
2026-04-29 22:06 15.88457 -165.54502 37166 ft 494 kts 40°
2026-04-29 22:07 15.93341 -165.49537 37168 ft 494 kts 40°
2026-04-29 22:07 15.98258 -165.44535 37169 ft 494 kts 39°
2026-04-29 22:08 16.03172 -165.39532 37182 ft 494 kts 39°
2026-04-29 22:08 16.08084 -165.34528 37177 ft 494 kts 39°
2026-04-29 22:09 16.12996 -165.29520 37173 ft 494 kts 39°
2026-04-29 22:09 16.17901 -165.24515 37177 ft 494 kts 39°
2026-04-29 22:10 16.22784 -165.19529 37167 ft 494 kts 39°
2026-04-29 22:10 16.27691 -165.14516 37174 ft 494 kts 39°
2026-04-29 22:11 16.32595 -165.09502 37176 ft 494 kts 39°
2026-04-29 22:11 16.37471 -165.04512 37172 ft 494 kts 39°
2026-04-29 22:12 16.40714 -165.01189 37177 ft 494 kts 39°
2026-04-29 22:12 16.45618 -164.96154 37176 ft 495 kts 39°
2026-04-29 22:13 16.50524 -164.91126 37178 ft 495 kts 39°
2026-04-29 22:13 16.55464 -164.86063 37466 ft 498 kts 39°
2026-04-29 22:13 16.57926 -164.83532 37737 ft 496 kts 39°
2026-04-29 22:14 16.60386 -164.81001 37968 ft 496 kts 39°
2026-04-29 22:14 16.62811 -164.78507 38108 ft 497 kts 39°
2026-04-29 22:14 16.65280 -164.75970 38278 ft 498 kts 39°
2026-04-29 22:14 16.67747 -164.73433 38510 ft 497 kts 39°
2026-04-29 22:15 16.70207 -164.70902 38670 ft 498 kts 39°
2026-04-29 22:15 16.72677 -164.68360 38856 ft 498 kts 39°
2026-04-29 22:15 16.75146 -164.65819 39038 ft 498 kts 39°
2026-04-29 22:15 16.77601 -164.63288 39152 ft 494 kts 39°
2026-04-29 22:16 16.80052 -164.60762 39172 ft 495 kts 39°
2026-04-29 22:16 16.84975 -164.55691 39188 ft 499 kts 39°
2026-04-29 22:17 16.89094 -164.51444 39190 ft 501 kts 39°
2026-04-29 22:17 16.94876 -164.45471 39182 ft 503 kts 39°
2026-04-29 22:18 16.99860 -164.40319 39189 ft 503 kts 39°
2026-04-29 22:18 17.04583 -164.34860 39180 ft 511 kts 50°
2026-04-29 22:19 17.07886 -164.28221 39203 ft 518 kts 64°
2026-04-29 22:19 17.10547 -164.21268 39178 ft 517 kts 65°
2026-04-29 22:20 17.12758 -164.15460 39182 ft 516 kts 64°
2026-04-29 22:20 17.15456 -164.08514 39180 ft 515 kts 64°
2026-04-29 22:21 17.18185 -164.01579 39185 ft 514 kts 64°
2026-04-29 22:21 17.20908 -163.94672 39175 ft 514 kts 64°
2026-04-29 22:22 17.23613 -163.87801 39192 ft 514 kts 64°
2026-04-29 22:22 17.26336 -163.80869 39182 ft 515 kts 64°
2026-04-29 22:23 17.29061 -163.73916 39193 ft 516 kts 64°
2026-04-29 22:23 17.31775 -163.66985 39184 ft 518 kts 64°
2026-04-29 22:24 17.34510 -163.59989 39183 ft 519 kts 64°
2026-04-29 22:24 17.37252 -163.52970 39196 ft 520 kts 64°
2026-04-29 22:25 17.39970 -163.46002 39180 ft 521 kts 64°
2026-04-29 22:25 17.42712 -163.38969 39186 ft 521 kts 64°
2026-04-29 22:26 17.45450 -163.31936 39182 ft 521 kts 64°
2026-04-29 22:26 17.48183 -163.24904 39182 ft 521 kts 64°
2026-04-29 22:27 17.50917 -163.17862 39181 ft 521 kts 64°
2026-04-29 22:27 17.53645 -163.10829 39184 ft 521 kts 64°
2026-04-29 22:28 17.56356 -163.03831 39199 ft 520 kts 64°
2026-04-29 22:28 17.59081 -162.96792 39196 ft 521 kts 64°
2026-04-29 22:29 17.61806 -162.89740 39192 ft 521 kts 64°
2026-04-29 22:29 17.64507 -162.82744 39191 ft 521 kts 64°
2026-04-29 22:30 17.67225 -162.75694 39195 ft 521 kts 64°
2026-04-29 22:30 17.69946 -162.68625 39188 ft 522 kts 64°
2026-04-29 22:31 17.72665 -162.61553 39192 ft 522 kts 64°
2026-04-29 22:31 17.75369 -162.54515 39191 ft 523 kts 64°
2026-04-29 22:32 17.78093 -162.47412 39191 ft 524 kts 64°
2026-04-29 22:32 17.80812 -162.40316 39192 ft 524 kts 64°
2026-04-29 22:33 17.83530 -162.33215 39197 ft 525 kts 64°
2026-04-29 22:33 17.86249 -162.26100 39200 ft 525 kts 64°
2026-04-29 22:34 17.88965 -162.18982 39189 ft 526 kts 64°
2026-04-29 22:34 17.91666 -162.11896 39196 ft 526 kts 64°
2026-04-29 22:35 17.94387 -162.04751 39191 ft 526 kts 64°
2026-04-29 22:35 17.97104 -161.97609 39201 ft 527 kts 64°
2026-04-29 22:36 17.99821 -161.90456 39190 ft 527 kts 64°
2026-04-29 22:36 18.02534 -161.83301 39194 ft 527 kts 64°
2026-04-29 22:37 18.05243 -161.76151 39191 ft 527 kts 64°
2026-04-29 22:37 18.07934 -161.69035 39190 ft 526 kts 64°
2026-04-29 22:38 18.10639 -161.61874 39190 ft 526 kts 64°
2026-04-29 22:38 18.13337 -161.54726 39189 ft 526 kts 64°
2026-04-29 22:39 18.16030 -161.47577 39191 ft 525 kts 64°
2026-04-29 22:39 18.18704 -161.40474 39194 ft 525 kts 64°
2026-04-29 22:40 18.21390 -161.33330 39195 ft 525 kts 64°
2026-04-29 22:40 18.24074 -161.26178 39195 ft 525 kts 64°
2026-04-29 22:41 18.26751 -161.19035 39193 ft 525 kts 64°
2026-04-29 22:41 18.29428 -161.11886 39202 ft 525 kts 64°
2026-04-29 22:42 18.32085 -161.04782 39203 ft 525 kts 64°
2026-04-29 22:42 18.34756 -160.97629 39206 ft 525 kts 64°
2026-04-29 22:43 18.37434 -160.90443 39204 ft 526 kts 64°
2026-04-29 22:43 18.40112 -160.83273 39197 ft 526 kts 63°
2026-04-29 22:44 18.43591 -160.76653 39217 ft 517 kts 50°
2026-04-29 22:44 18.47640 -160.70378 39203 ft 517 kts 49°
2026-04-29 22:45 18.51700 -160.64111 39200 ft 518 kts 50°
2026-04-29 22:45 18.55719 -160.57796 39199 ft 519 kts 50°
2026-04-29 22:46 18.59696 -160.51479 39205 ft 520 kts 50°
2026-04-29 22:46 18.63694 -160.45114 39201 ft 521 kts 50°
2026-04-29 22:47 18.67693 -160.38745 39201 ft 521 kts 50°
2026-04-29 22:47 18.71699 -160.32365 39204 ft 521 kts 50°
2026-04-29 22:48 18.75702 -160.25981 39198 ft 521 kts 51°
2026-04-29 22:48 18.79701 -160.19599 39207 ft 521 kts 51°
2026-04-29 22:49 18.83666 -160.13264 39200 ft 520 kts 51°
2026-04-29 22:49 18.87663 -160.06872 39159 ft 521 kts 51°
2026-04-29 22:50 18.91658 -160.00477 39162 ft 520 kts 51°
2026-04-29 22:50 18.95645 -159.94087 39146 ft 520 kts 51°
2026-04-29 22:51 18.99600 -159.87742 39161 ft 520 kts 51°
2026-04-29 22:51 19.05560 -159.78170 39166 ft 519 kts 51°
2026-04-29 22:52 19.09528 -159.71788 39165 ft 519 kts 51°
2026-04-29 22:52 19.13495 -159.65402 39167 ft 519 kts 51°
2026-04-29 22:53 19.17463 -159.59008 39165 ft 519 kts 51°
2026-04-29 22:53 19.21427 -159.52612 39169 ft 519 kts 51°
2026-04-29 22:54 19.25366 -159.46255 39165 ft 520 kts 51°
2026-04-29 22:54 19.29326 -159.39852 39166 ft 520 kts 51°
2026-04-29 22:55 19.33283 -159.33449 39166 ft 520 kts 51°
2026-04-29 22:55 19.37238 -159.27040 39172 ft 519 kts 51°
2026-04-29 22:56 19.41189 -159.20632 39184 ft 519 kts 51°
2026-04-29 22:56 19.45137 -159.14222 39183 ft 519 kts 51°
2026-04-29 22:57 19.49090 -159.07800 39193 ft 520 kts 51°
2026-04-29 22:57 19.53012 -159.01420 39184 ft 520 kts 51°
2026-04-29 22:58 19.56972 -158.94972 39179 ft 521 kts 51°
2026-04-29 22:58 19.60923 -158.88527 39191 ft 521 kts 51°
2026-04-29 22:59 19.64879 -158.82068 39182 ft 521 kts 51°
2026-04-29 22:59 19.68718 -158.75582 39160 ft 526 kts 57°
2026-04-29 23:00 19.71990 -158.68612 39162 ft 528 kts 60°
2026-04-29 23:00 19.75143 -158.61551 39168 ft 528 kts 60°
2026-04-29 23:01 19.78331 -158.54520 39156 ft 528 kts 59°
2026-04-29 23:01 19.81539 -158.47550 39148 ft 528 kts 59°
2026-04-29 23:02 19.84784 -158.40530 39148 ft 529 kts 59°
2026-04-29 23:02 19.88051 -158.33455 39159 ft 537 kts 59°
2026-04-29 23:03 19.91342 -158.26307 38917 ft 541 kts 60°
2026-04-29 23:03 19.92980 -158.22746 38435 ft 540 kts 59°
2026-04-29 23:03 19.94615 -158.19177 37714 ft 536 kts 60°
2026-04-29 23:04 19.96252 -158.15607 36914 ft 536 kts 60°
2026-04-29 23:04 19.97869 -158.12074 36497 ft 525 kts 60°
2026-04-29 23:04 19.99457 -158.08603 35890 ft 519 kts 60°
2026-04-29 23:04 20.01037 -158.05154 35192 ft 517 kts 60°
2026-04-29 23:05 20.02605 -158.01732 34530 ft 513 kts 60°
2026-04-29 23:05 20.04162 -157.98331 33820 ft 510 kts 60°
2026-04-29 23:05 20.05691 -157.94991 33152 ft 506 kts 60°
2026-04-29 23:05 20.07218 -157.91648 32600 ft 499 kts 60°
2026-04-29 23:06 20.08726 -157.88345 32064 ft 493 kts 60°
2026-04-29 23:06 20.10218 -157.85077 31508 ft 487 kts 61°
2026-04-29 23:06 20.11688 -157.81852 30928 ft 481 kts 61°
2026-04-29 23:06 20.13118 -157.78716 30376 ft 476 kts 61°
2026-04-29 23:07 20.14555 -157.75564 29812 ft 471 kts 61°
2026-04-29 23:07 20.15979 -157.72443 29157 ft 466 kts 61°
2026-04-29 23:07 20.17404 -157.69320 28129 ft 470 kts 62°
2026-04-29 23:07 20.18835 -157.66180 27221 ft 471 kts 62°
2026-04-29 23:08 20.20241 -157.63089 26531 ft 466 kts 62°
2026-04-29 23:08 20.21618 -157.60059 25948 ft 458 kts 62°
2026-04-29 23:08 20.22993 -157.57035 25315 ft 451 kts 62°
2026-04-29 23:08 20.24352 -157.54042 24638 ft 446 kts 62°
2026-04-29 23:09 20.25695 -157.51083 23975 ft 440 kts 62°
2026-04-29 23:09 20.27021 -157.48157 23317 ft 435 kts 62°
2026-04-29 23:09 20.28317 -157.45299 22650 ft 430 kts 62°
2026-04-29 23:09 20.29609 -157.42445 21982 ft 425 kts 62°
2026-04-29 23:10 20.30885 -157.39624 21310 ft 421 kts 62°
2026-04-29 23:10 20.32149 -157.36829 20654 ft 416 kts 62°
2026-04-29 23:10 20.33396 -157.34070 20007 ft 411 kts 62°
2026-04-29 23:10 20.34232 -157.32220 19560 ft 408 kts 62°
2026-04-29 23:11 20.35456 -157.29508 18904 ft 404 kts 61°
2026-04-29 23:11 20.36651 -157.26863 18271 ft 399 kts 61°
2026-04-29 23:11 20.37823 -157.24262 17920 ft 377 kts 61°
2026-04-29 23:11 20.38942 -157.21777 17216 ft 368 kts 61°
2026-04-29 23:12 20.40048 -157.19326 16306 ft 365 kts 62°
2026-04-29 23:12 20.41154 -157.16879 15663 ft 365 kts 62°
2026-04-29 23:12 20.42250 -157.14451 15086 ft 362 kts 62°
2026-04-29 23:12 20.43337 -157.12039 14508 ft 359 kts 62°
2026-04-29 23:13 20.44416 -157.09645 13931 ft 357 kts 62°
2026-04-29 23:13 20.45486 -157.07268 13362 ft 353 kts 62°
2026-04-29 23:13 20.46543 -157.04918 12767 ft 350 kts 62°
2026-04-29 23:13 20.47578 -157.02616 12205 ft 347 kts 63°
2026-04-29 23:14 20.48620 -157.00297 11630 ft 344 kts 63°
2026-04-29 23:14 20.49649 -156.98008 11067 ft 341 kts 63°
2026-04-29 23:14 20.50668 -156.95737 10496 ft 338 kts 63°
2026-04-29 23:14 20.51659 -156.93528 10326 ft 323 kts 63°
2026-04-29 23:15 20.52607 -156.91412 10153 ft 309 kts 63°
2026-04-29 23:15 20.53511 -156.89392 10029 ft 295 kts 63°
2026-04-29 23:15 20.54379 -156.87455 9911 ft 281 kts 63°
2026-04-29 23:15 20.55233 -156.85548 9394 ft 285 kts 63°
2026-04-29 23:16 20.56085 -156.83646 8979 ft 284 kts 64°
2026-04-29 23:16 20.56931 -156.81753 8593 ft 281 kts 64°
2026-04-29 23:16 20.57768 -156.79876 8198 ft 279 kts 64°
2026-04-29 23:16 20.58603 -156.78008 7817 ft 278 kts 64°
2026-04-29 23:17 20.59429 -156.76158 7420 ft 272 kts 64°
2026-04-29 23:17 20.60230 -156.74366 7050 ft 263 kts 64°
2026-04-29 23:17 20.61005 -156.72633 6708 ft 261 kts 64°
2026-04-29 23:17 20.61786 -156.70885 6342 ft 260 kts 64°
2026-04-29 23:18 20.62563 -156.69145 5994 ft 259 kts 64°
2026-04-29 23:18 20.63333 -156.67421 5646 ft 254 kts 64°
2026-04-29 23:18 20.64077 -156.65754 5401 ft 241 kts 64°
2026-04-29 23:18 20.64775 -156.64189 5294 ft 228 kts 64°
2026-04-29 23:19 20.65445 -156.62688 5192 ft 219 kts 64°
2026-04-29 23:19 20.66090 -156.61243 5104 ft 214 kts 64°
2026-04-29 23:19 20.66971 -156.59957 4915 ft 220 kts 38°
2026-04-29 23:19 20.68232 -156.59007 4704 ft 225 kts 36°
2026-04-29 23:20 20.69521 -156.58052 4427 ft 225 kts 36°
2026-04-29 23:20 20.70784 -156.57116 4172 ft 222 kts 36°
2026-04-29 23:20 20.72052 -156.56178 3894 ft 221 kts 35°
2026-04-29 23:20 20.73313 -156.55290 3740 ft 214 kts 35°
2026-04-29 23:21 20.74528 -156.54408 3483 ft 208 kts 36°
2026-04-29 23:21 20.75694 -156.53541 3217 ft 200 kts 36°
2026-04-29 23:21 20.76802 -156.52710 2941 ft 186 kts 37°
2026-04-29 23:21 20.77815 -156.51951 2711 ft 170 kts 37°
2026-04-29 23:22 20.78724 -156.51268 2501 ft 151 kts 36°
2026-04-29 23:22 20.79557 -156.50643 2319 ft 144 kts 36°
2026-04-29 23:22 20.80350 -156.50039 2119 ft 136 kts 36°
2026-04-29 23:22 20.81113 -156.49473 1872 ft 134 kts 33°
2026-04-29 23:23 20.81861 -156.48920 1665 ft 136 kts 34°
2026-04-29 23:23 20.82626 -156.48339 1466 ft 130 kts 33°
2026-04-29 23:23 20.83344 -156.47827 1356 ft 123 kts 30°
2026-04-29 23:23 20.84049 -156.47304 1218 ft 128 kts 31°
2026-04-29 23:24 20.84776 -156.46754 1121 ft 132 kts 34°
2026-04-29 23:24 20.85516 -156.46183 996 ft 131 kts 32°
2026-04-29 23:24 20.86253 -156.45638 786 ft 129 kts 31°
2026-04-29 23:24 20.86972 -156.45098 606 ft 125 kts 31°
2026-04-29 23:25 20.87681 -156.44566 402 ft 124 kts 32°
2026-04-29 23:25 20.88399 -156.44033 217 ft 125 kts 32°
2026-04-29 23:25 20.89100 -156.43497 53 ft 121 kts 31°
2026-04-29 23:25 20.89675 -156.43071 45 ft 71 kts 35°
2026-04-29 23:26 20.89908 -156.42895 43 ft 21 kts 37°
2026-04-29 23:26 20.90029 -156.42803 42 ft 21 kts 33°
2026-04-29 23:26 20.90124 -156.42696 43 ft 15 kts 90°
2026-04-29 23:26 20.90076 -156.42630 44 ft 0 kts 152°
2026-04-29 23:27 20.90066 -156.42633 44 ft 6 kts 194°
2026-04-29 23:27 20.89992 -156.42682 43 ft 15 kts 215°
2026-04-29 23:27 20.89911 -156.42744 42 ft 14 kts 215°
2026-04-29 23:27 20.89834 -156.42803 44 ft 13 kts 215°
2026-04-29 23:28 20.89758 -156.42857 43 ft 13 kts 214°
2026-04-29 23:28 20.89686 -156.42910 42 ft 13 kts 216°
2026-04-29 23:28 20.89610 -156.42937 44 ft 11 kts 161°
2026-04-29 23:28 20.89585 -156.42935 42 ft 4 kts 199°
2026-04-29 23:29 20.89568 -156.42949 44 ft 0 kts 232°
2026-04-29 23:29 20.89569 -156.42953 44 ft 1 kts 276°
2026-04-29 23:29 20.89572 -156.42956 44 ft 0 kts 306°
2026-04-29 23:29 20.89570 -156.42954 44 ft 0 kts 306°